EW6603 Weather Reports


Display with metric or nautical units.
time (UTC)temp
F
wind
direction
speed
MPH
gust
MPH
rain 1hr
in
rain 24hr
in
rain mn
in
humidity
%
barometer
mb
20260505170320 82 271 3.0 9.0 0.00 0.00 0.00 39 1011.3
20260505170210 83 70 4.0 9.0 0.00 0.00 0.00 39 1011.4
20260505170143 83 25 2.0 9.0 0.00 0.00 0.00 39 1011.4
20260505170027 83 105 1.0 9.0 0.00 0.00 0.00 38 1011.4
20260505165913 83 48 0.0 8.0 0.00 0.00 0.00 38 1011.4
20260505165826 83 93 0.0 9.0 0.00 0.00 0.00 36 1011.4
20260505165712 83 293 0.0 9.0 0.00 0.00 0.00 36 1011.5
20260505165622 83 67 0.0 9.0 0.00 0.00 0.00 36 1011.5
20260505165555 83 86 0.0 9.0 0.00 0.00 0.00 36 1011.4
20260505165413 82 324 0.0 9.0 0.00 0.00 0.00 39 1011.5
20260505165326 82 40 1.0 9.0 0.00 0.00 0.00 36 1011.5
20260505165212 82 94 1.0 9.0 0.00 0.00 0.00 36 1011.6
20260505165115 82 329 2.0 9.0 0.00 0.00 0.00 37 1011.6
20260505165022 82 59 2.0 9.0 0.00 0.00 0.00 36 1011.5
20260505164949 82 18 0.0 11.0 0.00 0.00 0.00 36 1011.5
20260505164814 81 337 0.0 11.0 0.00 0.00 0.00 35 1011.5
20260505164720 81 12 1.0 11.0 0.00 0.00 0.00 37 1011.5
20260505164653 81 55 1.0 11.0 0.00 0.00 0.00 34 1011.6
20260505164518 81 310 0.0 11.0 0.00 0.00 0.00 35 1011.6
20260505164417 81 196 0.0 11.0 0.00 0.00 0.00 36 1011.7
20260505164331 81 172 2.0 11.0 0.00 0.00 0.00 34 1011.7
20260505164216 81 315 3.0 11.0 0.00 0.00 0.00 34 1011.7
20260505164122 81 338 2.0 8.0 0.00 0.00 0.00 35 1011.7
20260505164034 82 88 2.0 8.0 0.00 0.00 0.00 36 1011.7
20260505163918 82 355 0.0 1.0 0.00 0.00 0.00 34 1011.8
20260505163821 82 312 0.0 1.0 0.00 0.00 0.00 35 1011.8
20260505163711 82 48 0.0 1.0 0.00 0.00 0.00 36 1011.7
20260505163618 82 63 0.0 1.0 0.00 0.00 0.00 35 1011.8
20260505163523 82 19 0.0 1.0 0.00 0.00 0.00 35 1011.8
20260505163410 82 40 0.0 1.0 0.00 0.00 0.00 35 1011.9
20260505163323 82 36 0.0 1.0 0.00 0.00 0.00 36 1011.9
20260505163212 82 248 0.0 1.0 0.00 0.00 0.00 35 1011.9
20260505163138 82 329 0.0 9.0 0.00 0.00 0.00 38 1011.9
20260505163027 82 44 0.0 9.0 0.00 0.00 0.00 39 1011.9
20260505163012 81 84 0.0 9.0 0.00 0.00 0.00 39 1011.6
20260505162913 82 119 0.0 9.0 0.00 0.00 0.00 35 1011.9
20260505162819 82 52 0.0 9.0 0.00 0.00 0.00 36 1011.9
20260505162752 82 139 0.0 9.0 0.00 0.00 0.00 34 1011.9
20260505162609 82 55 0.0 9.0 0.00 0.00 0.00 37 1011.9
20260505162546 82 107 0.0 9.0 0.00 0.00 0.00 36 1011.9
20260505162411 82 82 1.0 9.0 0.00 0.00 0.00 36 1011.9
20260505162317 82 108 1.0 11.0 0.00 0.00 0.00 35 1012.0
20260505162230 82 355 2.0 11.0 0.00 0.00 0.00 35 1012.0
20260505162117 82 251 2.0 11.0 0.00 0.00 0.00 36 1012.0
20260505162023 82 316 3.0 11.0 0.00 0.00 0.00 35 1012.0
20260505161932 82 294 2.0 11.0 0.00 0.00 0.00 36 1012.0
20260505161825 81 15 0.0 11.0 0.00 0.00 0.00 36 1012.0
20260505161712 81 71 1.0 11.0 0.00 0.00 0.00 36 1012.0
20260505161618 81 22 1.0 11.0 0.00 0.00 0.00 34 1012.0
20260505161616 81 266 2.0 11.0 0.00 0.00 0.00 35 1011.7
20260505161543 82 334 3.0 11.0 0.00 0.00 0.00 35 1012.0
20260505161435 82 267 4.0 11.0 0.00 0.00 0.00 34 1012.0
20260505161325 82 329 1.0 10.0 0.00 0.00 0.00 37 1012.1
20260505161211 82 5 0.0 5.0 0.00 0.00 0.00 37 1012.1
20260505161117 82 70 0.0 5.0 0.00 0.00 0.00 40 1012.1
20260505161023 82 86 0.0 5.0 0.00 0.00 0.00 36 1012.1
20260505160909 81 5 1.0 9.0 0.00 0.00 0.00 36 1012.1
20260505160821 81 243 1.0 9.0 0.00 0.00 0.00 36 1012.1
20260505160711 81 47 1.0 9.0 0.00 0.00 0.00 36 1012.1
20260505160617 81 316 0.0 9.0 0.00 0.00 0.00 36 1012.1
20260505160550 81 77 0.0 9.0 0.00 0.00 0.00 37 1012.1
20260505160415 81 53 0.0 9.0 0.00 0.00 0.00 37 1012.1
20260505160321 81 332 1.0 9.0 0.00 0.00 0.00 37 1012.1
20260505160224 81 273 1.0 9.0 0.00 0.00 0.00 36 1012.2
20260505160114 81 19 1.0 10.0 0.00 0.00 0.00 37 1012.2
20260505153319 80 5 1.0 14.0 0.00 0.00 0.00 37 1012.6
20260505153209 80 53 0.0 14.0 0.00 0.00 0.00 38 1012.6
20260505153115 80 270 0.0 14.0 0.00 0.00 0.00 39 1012.6
20260505153050 80 60 0.0 14.0 0.00 0.00 0.00 37 1012.3
20260505153021 80 74 0.0 14.0 0.00 0.00 0.00 37 1012.6
20260505152927 80 290 4.0 14.0 0.00 0.00 0.00 40 1012.6
20260505152813 80 267 4.0 14.0 0.00 0.00 0.00 41 1012.6
20260505152730 80 26 1.0 10.0 0.00 0.00 0.00 40 1012.6
20260505152617 80 59 0.0 10.0 0.00 0.00 0.00 41 1012.6
20260505152542 80 69 0.0 10.0 0.00 0.00 0.00 40 1012.6
20260505152434 80 70 1.0 10.0 0.00 0.00 0.00 39 1012.7
20260505152321 80 259 1.0 10.0 0.00 0.00 0.00 39 1012.6
20260505152227 80 302 1.0 9.0 0.00 0.00 0.00 38 1012.6
20260505152114 80 313 1.0 10.0 0.00 0.00 0.00 41 1012.6
20260505152020 79 38 1.0 10.0 0.00 0.00 0.00 39 1012.6
20260505151953 79 355 1.0 10.0 0.00 0.00 0.00 40 1012.5
20260505151818 79 43 3.0 10.0 0.00 0.00 0.00 39 1012.6
20260505151724 80 309 3.0 10.0 0.00 0.00 0.00 38 1012.6
20260505151610 80 88 1.0 10.0 0.00 0.00 0.00 38 1012.5
20260505151540 79 18 1.0 10.0 0.00 0.00 0.00 38 1012.2
20260505151520 80 26 2.0 10.0 0.00 0.00 0.00 39 1012.5
20260505151433 79 319 2.0 10.0 0.00 0.00 0.00 39 1012.5
20260505151320 79 330 3.0 10.0 0.00 0.00 0.00 38 1012.5
20260505151245 79 299 2.0 9.0 0.00 0.00 0.00 40 1012.6
20260505151110 79 36 2.0 13.0 0.00 0.00 0.00 40 1012.4
20260505151016 79 290 2.0 13.0 0.00 0.00 0.00 40 1012.4
20260505150933 79 63 1.0 13.0 0.00 0.00 0.00 43 1012.5
20260505150818 79 5 1.0 13.0 0.00 0.00 0.00 40 1012.4
20260505150724 79 13 1.0 13.0 0.00 0.00 0.00 40 1012.4
20260505150610 79 28 0.0 13.0 0.00 0.00 0.00 41 1012.4
20260505150523 79 69 1.0 13.0 0.00 0.00 0.00 41 1012.4
20260505150411 79 34 3.0 13.0 0.00 0.00 0.00 43 1012.5
20260505150338 79 143 2.0 13.0 0.00 0.00 0.00 42 1012.5
20260505150229 79 26 0.0 11.0 0.00 0.00 0.00 42 1012.5
20260505150136 79 33 0.0 11.0 0.00 0.00 0.00 43 1012.5
20260505140624 74 304 0.0 3.0 0.00 0.00 0.00 55 1012.7
20260505140509 74 34 0.0 3.0 0.00 0.00 0.00 56 1012.6
20260505140415 74 26 0.0 2.0 0.00 0.00 0.00 55 1012.6
20260505140342 74 348 0.0 2.0 0.00 0.00 0.00 56 1012.6
20260505140233 73 5 0.0 2.0 0.00 0.00 0.00 56 1012.6
20260505140123 73 19 0.0 2.0 0.00 0.00 0.00 57 1012.6
20260505130310 61 42 0.0 0.0 0.00 0.00 0.00 75 1013.1
20260505130217 61 350 0.0 0.0 0.00 0.00 0.00 77 1013.1
20260505130112 61 53 0.0 0.0 0.00 0.00 0.00 77 1013.1
20260505124910 58 56 0.0 0.0 0.00 0.00 0.00 83 1013.2
20260505124816 58 56 0.0 0.0 0.00 0.00 0.00 82 1013.2
20260505124749 58 57 0.0 0.0 0.00 0.00 0.00 83 1013.2
20260505124634 57 57 0.0 0.0 0.00 0.00 0.00 83 1013.3
20260505124540 57 57 0.0 0.0 0.00 0.00 0.00 83 1013.0
20260505124519 57 57 0.0 0.0 0.00 0.00 0.00 83 1013.3
20260505124409 57 57 0.0 0.0 0.00 0.00 0.00 84 1013.3
20260505124322 57 57 0.0 0.0 0.00 0.00 0.00 85 1013.3
20260505124248 56 57 0.0 0.0 0.00 0.00 0.00 85 1013.3
20260505124113 56 76 0.0 0.0 0.00 0.00 0.00 86 1013.3
20260505124019 56 76 0.0 0.0 0.00 0.00 0.00 88 1013.3
20260505123932 56 76 0.0 0.0 0.00 0.00 0.00 89 1013.3
20260505123822 55 73 0.0 0.0 0.00 0.00 0.00 90 1013.3
20260505123748 55 73 0.0 0.0 0.00 0.00 0.00 91 1013.3
20260505123612 55 76 0.0 0.0 0.00 0.00 0.00 91 1013.3
20260505123526 55 76 0.0 0.0 0.00 0.00 0.00 91 1013.3
20260505123411 54 76 0.0 0.0 0.00 0.00 0.00 92 1013.4
20260505123321 54 76 0.0 0.0 0.00 0.00 0.00 92 1013.4
20260505123254 54 76 0.0 0.0 0.00 0.00 0.00 94 1013.4
20260505123139 54 76 0.0 0.0 0.00 0.00 0.00 96 1013.5
20260505123051 53 76 0.0 0.0 0.00 0.00 0.00 96 1013.3
20260505123024 54 76 0.0 0.0 0.00 0.00 0.00 96 1013.5
20260505122910 53 76 0.0 0.0 0.00 0.00 0.00 96 1013.5
20260505122816 53 76 0.0 0.0 0.00 0.00 0.00 96 1013.6
20260505122749 53 76 0.0 0.0 0.00 0.00 0.00 96 1013.6
20260505122639 53 76 0.0 0.0 0.00 0.00 0.00 96 1013.5
20260505122530 53 76 0.0 0.0 0.00 0.00 0.00 96 1013.5
20260505122417 53 76 0.0 0.0 0.00 0.00 0.00 96 1013.5
20260505122322 53 76 0.0 0.0 0.00 0.00 0.00 96 1013.5
20260505122228 53 76 0.0 0.0 0.00 0.00 0.00 96 1013.5
20260505122114 53 76 0.0 0.0 0.00 0.00 0.00 96 1013.5
20260505122051 52 76 0.0 0.0 0.00 0.00 0.00 96 1013.5
20260505121916 52 76 0.0 0.0 0.00 0.00 0.00 96 1013.6
20260505121822 52 76 0.0 0.0 0.00 0.00 0.00 96 1013.6
20260505121728 52 76 0.0 0.0 0.00 0.00 0.00 96 1013.7
20260505121614 52 76 0.0 0.0 0.00 0.00 0.00 96 1013.6
20260505121527 52 76 0.0 0.0 0.00 0.00 0.00 96 1013.6
20260505121518 51 76 0.0 0.0 0.00 0.00 0.00 96 1013.3
20260505121437 52 76 0.0 0.0 0.00 0.00 0.00 96 1013.6
20260505121349 52 76 0.0 0.0 0.00 0.00 0.00 96 1013.6
20260505121234 51 76 0.0 0.0 0.00 0.00 0.00 96 1013.6
20260505121109 51 76 0.0 0.0 0.00 0.00 0.00 96 1013.6
20260505121015 51 76 0.0 0.0 0.00 0.00 0.00 96 1013.6
20260505120918 51 76 0.0 0.0 0.00 0.00 0.00 96 1013.6
20260505120835 51 76 0.0 0.0 0.00 0.00 0.00 96 1013.6
20260505120718 51 76 0.0 0.0 0.00 0.00 0.00 96 1013.5
20260505120621 51 76 0.0 0.0 0.00 0.00 0.00 96 1013.5
20260505120524 50 76 0.0 0.0 0.00 0.00 0.00 96 1013.5
20260505120410 50 76 0.0 0.0 0.00 0.00 0.00 96 1013.5
20260505120316 50 76 0.0 0.0 0.00 0.00 0.00 96 1013.6
20260505120214 50 76 0.0 0.0 0.00 0.00 0.00 96 1013.5
20260505120139 50 76 0.0 0.0 0.00 0.00 0.00 96 1013.5
20260505120051 49 76 0.0 0.0 0.00 0.00 0.00 96 1013.6
20260505120021 49 76 0.0 0.0 0.00 0.00 0.00 96 1013.3
20260505115916 49 76 0.0 0.0 0.00 0.00 0.00 96 1013.5
20260505115821 49 76 0.0 0.0 0.00 0.00 0.00 96 1013.5
20260505115727 49 76 0.0 0.0 0.00 0.00 0.00 96 1013.5
20260505115617 48 76 0.0 0.0 0.00 0.00 0.00 96 1013.4
20260505115530 48 76 0.0 0.0 0.00 0.00 0.00 96 1013.4
20260505115435 48 76 0.0 0.0 0.00 0.00 0.00 96 1013.4
20260505115347 48 76 0.0 0.0 0.00 0.00 0.00 95 1013.4
20260505115232 48 76 0.0 0.0 0.00 0.00 0.00 96 1013.3
20260505115144 48 76 0.0 0.0 0.00 0.00 0.00 96 1013.3
20260505115056 48 76 0.0 0.0 0.00 0.00 0.00 96 1013.4
20260505114914 47 76 0.0 0.0 0.00 0.00 0.00 96 1013.4
20260505114831 47 76 0.0 0.0 0.00 0.00 0.00 96 1013.4
20260505114717 47 76 0.0 0.0 0.00 0.00 0.00 96 1013.3
20260505114643 47 76 0.0 0.0 0.00 0.00 0.00 95 1013.3
20260505114534 47 76 0.0 0.0 0.00 0.00 0.00 95 1013.3
20260505114517 47 76 0.0 0.0 0.00 0.00 0.00 95 1013.0
20260505114421 47 76 0.0 0.0 0.00 0.00 0.00 95 1013.3
20260505114310 47 76 0.0 0.0 0.00 0.00 0.00 95 1013.2
20260505114217 47 76 0.0 0.0 0.00 0.00 0.00 95 1013.2
20260505114150 47 76 0.0 0.0 0.00 0.00 0.00 95 1013.2
20260505114034 47 76 0.0 0.0 0.00 0.00 0.00 95 1013.2
20260505113921 47 76 0.0 0.0 0.00 0.00 0.00 95 1013.2
20260505113826 47 76 0.0 0.0 0.00 0.00 0.00 95 1013.1
20260505113717 46 76 0.0 0.0 0.00 0.00 0.00 95 1013.2
20260505113622 46 76 0.0 0.0 0.00 0.00 0.00 95 1013.2
20260505113535 46 76 0.0 0.0 0.00 0.00 0.00 95 1013.1
20260505113422 46 76 0.0 0.0 0.00 0.00 0.00 95 1013.1
20260505113328 46 76 0.0 0.0 0.00 0.00 0.00 95 1013.2
20260505113213 46 76 0.0 0.0 0.00 0.00 0.00 95 1013.2
20260505113123 46 76 0.0 0.0 0.00 0.00 0.00 95 1013.2
20260505113045 46 76 0.0 0.0 0.00 0.00 0.00 95 1013.0
20260505113009 46 76 0.0 0.0 0.00 0.00 0.00 95 1013.2
20260505112915 46 76 0.0 0.0 0.00 0.00 0.00 95 1013.2
20260505112848 46 76 0.0 0.0 0.00 0.00 0.00 95 1013.2
20260505112734 46 76 0.0 0.0 0.00 0.00 0.00 95 1013.2
20260505112626 46 76 0.0 0.0 0.00 0.00 0.00 95 1013.2
20260505112516 46 76 0.0 0.0 0.00 0.00 0.00 95 1013.3
20260505112433 46 76 0.0 0.0 0.00 0.00 0.00 95 1013.2
20260505112325 46 76 0.0 0.0 0.00 0.00 0.00 95 1013.2
20260505112212 46 76 0.0 0.0 0.00 0.00 0.00 95 1013.3
20260505112117 46 76 0.0 0.0 0.00 0.00 0.00 95 1013.3
20260505112043 46 76 0.0 0.0 0.00 0.00 0.00 95 1013.3
20260505111912 46 76 0.0 0.0 0.00 0.00 0.00 95 1013.3
20260505111825 46 76 0.0 0.0 0.00 0.00 0.00 95 1013.3
20260505111711 46 76 0.0 0.0 0.00 0.00 0.00 95 1013.3
20260505111617 46 76 0.0 0.0 0.00 0.00 0.00 95 1013.3
20260505111545 45 76 0.0 0.0 0.00 0.00 0.00 95 1013.1
20260505111523 46 76 0.0 0.0 0.00 0.00 0.00 95 1013.3
20260505111409 45 76 0.0 0.0 0.00 0.00 0.00 95 1013.2
20260505111326 45 76 0.0 0.0 0.00 0.00 0.00 95 1013.2
20260505111232 45 76 0.0 0.0 0.00 0.00 0.00 95 1013.2
20260505111118 45 76 0.0 0.0 0.00 0.00 0.00 95 1013.2
20260505111024 45 76 0.0 0.0 0.00 0.00 0.00 95 1013.2
20260505110930 45 76 0.0 0.0 0.00 0.00 0.00 95 1013.1
20260505110822 45 76 0.0 0.0 0.00 0.00 0.00 95 1013.1
20260505110712 45 76 0.0 0.0 0.00 0.00 0.00 95 1013.1
20260505110618 45 76 0.0 0.0 0.00 0.00 0.00 95 1013.1
20260505110524 45 76 0.0 0.0 0.00 0.00 0.00 95 1013.2
20260505110410 45 76 0.0 0.0 0.00 0.00 0.00 95 1013.1
20260505110316 45 76 0.0 0.0 0.00 0.00 0.00 95 1013.1
20260505110233 45 76 0.0 0.0 0.00 0.00 0.00 95 1013.1
20260505110118 45 76 0.0 0.0 0.00 0.00 0.00 95 1013.1
20260505102131 44 76 0.0 0.0 0.00 0.00 0.00 94 1012.8
20260505102016 44 76 0.0 0.0 0.00 0.00 0.00 94 1012.8
20260505101922 44 76 0.0 0.0 0.00 0.00 0.00 94 1012.8
20260505101835 44 76 0.0 0.0 0.00 0.00 0.00 94 1012.7
20260505101741 44 76 0.0 0.0 0.00 0.00 0.00 94 1012.7
20260505101630 44 76 0.0 0.0 0.00 0.00 0.00 94 1012.7
20260505101522 44 76 0.0 0.0 0.00 0.00 0.00 94 1012.7
20260505101513 43 76 0.0 0.0 0.00 0.00 0.00 94 1012.4
20260505101428 44 76 0.0 0.0 0.00 0.00 0.00 94 1012.6
20260505101334 44 76 0.0 0.0 0.00 0.00 0.00 94 1012.6
20260505101226 44 76 0.0 0.0 0.00 0.00 0.00 94 1012.6
20260505101132 44 76 0.0 0.0 0.00 0.00 0.00 94 1012.6
20260505101017 44 76 0.0 0.0 0.00 0.00 0.00 94 1012.7
20260505100934 44 76 0.0 0.0 0.00 0.00 0.00 94 1012.7
20260505100813 44 76 0.0 0.0 0.00 0.00 0.00 94 1012.6
20260505100726 44 76 0.0 0.0 0.00 0.00 0.00 94 1012.6
20260505100612 44 76 0.0 0.0 0.00 0.00 0.00 94 1012.5
20260505100518 44 76 0.0 0.0 0.00 0.00 0.00 94 1012.5
20260505100428 44 76 0.0 0.0 0.00 0.00 0.00 94 1012.5
20260505100341 44 76 0.0 0.0 0.00 0.00 0.00 94 1012.6
20260505100226 44 76 0.0 0.0 0.00 0.00 0.00 94 1012.6
20260505100112 44 76 0.0 0.0 0.00 0.00 0.00 94 1012.6
20260505100047 43 76 0.0 0.0 0.00 0.00 0.00 94 1012.3
20260505100037 44 76 0.0 0.0 0.00 0.00 0.00 94 1012.6
20260505095929 44 76 0.0 0.0 0.00 0.00 0.00 94 1012.6
20260505095835 44 76 0.0 0.0 0.00 0.00 0.00 94 1012.6
20260505095724 44 76 0.0 0.0 0.00 0.00 0.00 94 1012.6
20260505095609 44 76 0.0 0.0 0.00 0.00 0.00 94 1012.6
20260505095522 44 76 0.0 0.0 0.00 0.00 0.00 94 1012.6
20260505095428 44 76 0.0 0.0 0.00 0.00 0.00 94 1012.6
20260505095314 44 76 0.0 0.0 0.00 0.00 0.00 94 1012.6
20260505095225 44 76 0.0 0.0 0.00 0.00 0.00 94 1012.6
20260505095138 44 76 0.0 0.0 0.00 0.00 0.00 94 1012.6
20260505095009 44 76 0.0 0.0 0.00 0.00 0.00 94 1012.6
20260505094923 43 76 0.0 0.0 0.00 0.00 0.00 94 1012.6
20260505094828 43 76 0.0 0.0 0.00 0.00 0.00 94 1012.7
20260505094714 43 76 0.0 0.0 0.00 0.00 0.00 93 1012.7
20260505094625 44 76 0.0 0.0 0.00 0.00 0.00 94 1012.7
20260505094532 43 76 0.0 0.0 0.00 0.00 0.00 94 1012.5
20260505094510 44 76 0.0 0.0 0.00 0.00 0.00 94 1012.7
20260505094424 44 76 0.0 0.0 0.00 0.00 0.00 93 1012.7
20260505094349 44 76 0.0 0.0 0.00 0.00 0.00 93 1012.7
20260505094214 44 76 0.0 0.0 0.00 0.00 0.00 93 1012.7
20260505094120 44 76 0.0 0.0 0.00 0.00 0.00 93 1012.7
20260505094010 44 76 0.0 0.0 0.00 0.00 0.00 93 1012.7
20260505093923 44 76 0.0 0.0 0.00 0.00 0.00 93 1012.7
20260505093829 44 76 0.0 0.0 0.00 0.00 0.00 93 1012.6
20260505093721 44 76 0.0 0.0 0.00 0.00 0.00 93 1012.7
20260505093631 44 76 0.0 0.0 0.00 0.00 0.00 93 1012.7
20260505093521 44 76 0.0 0.0 0.00 0.00 0.00 93 1012.7
20260505093426 44 76 0.0 0.0 0.00 0.00 0.00 93 1012.6
20260505093312 44 76 0.0 0.0 0.00 0.00 0.00 93 1012.7
20260505093228 44 76 0.0 0.0 0.00 0.00 0.00 94 1012.7
20260505093138 44 76 0.0 0.0 0.00 0.00 0.00 94 1012.8
20260505093056 43 76 0.0 0.0 0.00 0.00 0.00 94 1012.5
20260505093018 44 76 0.0 0.0 0.00 0.00 0.00 94 1012.8
20260505092951 44 76 0.0 0.0 0.00 0.00 0.00 93 1012.7
20260505092820 44 76 0.0 0.0 0.00 0.00 0.00 94 1012.7
20260505092726 44 76 0.0 0.0 0.00 0.00 0.00 94 1012.7
20260505092612 44 76 0.0 0.0 0.00 0.00 0.00 93 1012.7
20260505092545 44 76 0.0 0.0 0.00 0.00 0.00 93 1012.7
20260505092413 44 76 0.0 0.0 0.00 0.00 0.00 93 1012.7
20260505092326 44 76 0.0 0.0 0.00 0.00 0.00 93 1012.7
20260505092215 44 76 0.0 0.0 0.00 0.00 0.00 93 1012.7
20260505092121 44 76 0.0 0.0 0.00 0.00 0.00 93 1012.7
20260505092027 44 76 0.0 0.0 0.00 0.00 0.00 93 1012.7
20260505091913 44 76 0.0 0.0 0.00 0.00 0.00 93 1012.7
20260505091826 44 76 0.0 0.0 0.00 0.00 0.00 93 1012.7
20260505091726 44 76 0.0 0.0 0.00 0.00 0.00 93 1012.7
20260505091612 44 76 0.0 0.0 0.00 0.00 0.00 93 1012.7
20260505091543 43 76 0.0 0.0 0.00 0.00 0.00 93 1012.5
20260505091515 44 76 0.0 0.0 0.00 0.00 0.00 93 1012.7
20260505091421 44 76 0.0 0.0 0.00 0.00 0.00 93 1012.7
20260505091334 44 76 0.0 0.0 0.00 0.00 0.00 93 1012.6
20260505091239 44 76 0.0 0.0 0.00 0.00 0.00 93 1012.6
20260505091131 44 76 0.0 0.0 0.00 0.00 0.00 93 1012.6
20260505091021 44 76 0.0 0.0 0.00 0.00 0.00 93 1012.6
20260505090927 44 76 0.0 0.0 0.00 0.00 0.00 93 1012.6
20260505090813 44 76 0.0 0.0 0.00 0.00 0.00 93 1012.6
20260505090719 44 76 0.0 0.0 0.00 0.00 0.00 93 1012.6
20260505090652 44 76 0.0 0.0 0.00 0.00 0.00 93 1012.6
20260505090521 44 76 0.0 0.0 0.00 0.00 0.00 93 1012.6
20260505090427 44 76 0.0 0.0 0.00 0.00 0.00 93 1012.6
20260505090313 44 76 0.0 0.0 0.00 0.00 0.00 93 1012.6
20260505090219 44 76 0.0 0.0 0.00 0.00 0.00 93 1012.6
20260505090132 44 76 0.0 0.0 0.00 0.00 0.00 93 1012.6
20260505090018 44 76 0.0 0.0 0.00 0.00 0.00 93 1012.6
20260505090013 44 76 0.0 0.0 0.00 0.00 0.00 93 1012.4
20260505085928 44 76 0.0 0.0 0.00 0.00 0.00 93 1012.6
20260505085834 44 76 0.0 0.0 0.00 0.00 0.00 93 1012.6
20260505085726 44 76 0.0 0.0 0.00 0.00 0.00 93 1012.6
20260505085632 44 76 0.0 0.0 0.00 0.00 0.00 93 1012.6
20260505085518 44 76 0.0 0.0 0.00 0.00 0.00 93 1012.6
20260505085444 44 76 0.0 0.0 0.00 0.00 0.00 93 1012.5
20260505085313 44 76 0.0 0.0 0.00 0.00 0.00 93 1012.5
20260505085227 44 76 0.0 0.0 0.00 0.00 0.00 93 1012.5
20260505085113 44 76 0.0 0.0 0.00 0.00 0.00 93 1012.6
20260505085019 44 76 0.0 0.0 0.00 0.00 0.00 93 1012.6
20260505084924 44 76 0.0 0.0 0.00 0.00 0.00 93 1012.5
20260505084815 44 76 0.0 0.0 0.00 0.00 0.00 93 1012.5
20260505084721 44 76 0.0 0.0 0.00 0.00 0.00 93 1012.5
20260505084634 44 76 0.0 0.0 0.00 0.00 0.00 93 1012.5
20260505084612 44 76 0.0 0.0 0.00 0.00 0.00 93 1012.2
20260505084540 44 76 0.0 0.0 0.00 0.00 0.00 93 1012.4
20260505084425 44 76 0.0 0.0 0.00 0.00 0.00 93 1012.4
20260505084311 44 76 0.0 0.0 0.00 0.00 0.00 93 1012.3
20260505084227 44 76 0.0 0.0 0.00 0.00 0.00 93 1012.3
20260505084134 44 76 0.0 0.0 0.00 0.00 0.00 93 1012.3
20260505084018 44 76 0.0 0.0 0.00 0.00 0.00 93 1012.3
20260505083932 44 76 0.0 0.0 0.00 0.00 0.00 93 1012.3
20260505083817 44 76 0.0 0.0 0.00 0.00 0.00 93 1012.3
20260505083722 44 76 0.0 0.0 0.00 0.00 0.00 93 1012.3
20260505083612 44 76 0.0 0.0 0.00 0.00 0.00 93 1012.3
20260505083518 44 76 0.0 0.0 0.00 0.00 0.00 93 1012.3
20260505083431 44 76 0.0 0.0 0.00 0.00 0.00 93 1012.3
20260505083317 44 76 0.0 0.0 0.00 0.00 0.00 93 1012.2
20260505083243 45 76 0.0 0.0 0.00 0.00 0.00 93 1012.3
20260505083135 45 76 0.0 0.0 0.00 0.00 0.00 93 1012.3
20260505083025 45 76 0.0 0.0 0.00 0.00 0.00 93 1012.3
20260505083016 44 76 0.0 0.0 0.00 0.00 0.00 93 1012.0
20260505082912 45 76 0.0 0.0 0.00 0.00 0.00 93 1012.3
20260505082817 45 76 0.0 0.0 0.00 0.00 0.00 93 1012.3
20260505082723 45 76 0.0 0.0 0.00 0.00 0.00 93 1012.2
20260505082656 45 76 0.0 0.0 0.00 0.00 0.00 93 1012.2
20260505082541 45 76 0.0 0.0 0.00 0.00 0.00 93 1012.2
20260505082410 45 76 0.0 0.0 0.00 0.00 0.00 93 1012.2
20260505082316 45 76 0.0 0.0 0.00 0.00 0.00 93 1012.2
20260505082229 45 76 0.0 0.0 0.00 0.00 0.00 93 1012.2
20260505082115 45 76 0.0 0.0 0.00 0.00 0.00 93 1012.2
20260505082041 45 76 0.0 0.0 0.00 0.00 0.00 93 1012.2
20260505081926 45 76 0.0 0.0 0.00 0.00 0.00 93 1012.2
20260505081816 45 76 0.0 0.0 0.00 0.00 0.00 93 1012.2
20260505081729 45 76 0.0 0.0 0.00 0.00 0.00 93 1012.2
20260505081615 45 76 0.0 0.0 0.00 0.00 0.00 93 1012.2
20260505081604 44 76 0.0 0.0 0.00 0.00 0.00 93 1011.9
20260505081521 45 76 0.0 0.0 0.00 0.00 0.00 93 1012.2
20260505081427 45 76 0.0 0.0 0.00 0.00 0.00 93 1012.2
20260505081313 45 76 0.0 0.0 0.00 0.00 0.00 93 1012.1
20260505081230 45 76 0.0 0.0 0.00 0.00 0.00 93 1012.2
20260505081115 45 76 0.0 0.0 0.00 0.00 0.00 93 1012.2
20260505081021 45 76 0.0 0.0 0.00 0.00 0.00 93 1012.2
20260505080927 45 76 0.0 0.0 0.00 0.00 0.00 93 1012.2
20260505080813 45 76 0.0 0.0 0.00 0.00 0.00 93 1012.2
20260505080725 45 76 0.0 0.0 0.00 0.00 0.00 93 1012.2
20260505080616 45 76 0.0 0.0 0.00 0.00 0.00 93 1012.2
20260505080521 45 76 0.0 0.0 0.00 0.00 0.00 93 1012.2
20260505080428 45 76 0.0 0.0 0.00 0.00 0.00 93 1012.1
20260505080314 45 76 0.0 0.0 0.00 0.00 0.00 93 1012.2
20260505080219 45 76 0.0 0.0 0.00 0.00 0.00 93 1012.2
20260505080109 45 76 0.0 0.0 0.00 0.00 0.00 93 1012.2
20260505080022 45 76 0.0 0.0 0.00 0.00 0.00 93 1012.2
20260505080002 45 76 0.0 0.0 0.00 0.00 0.00 93 1011.9
20260505075928 45 76 0.0 0.0 0.00 0.00 0.00 93 1012.2
20260505075814 45 76 0.0 0.0 0.00 0.00 0.00 93 1012.1
20260505075720 45 76 0.0 0.0 0.00 0.00 0.00 93 1012.1
20260505075610 45 76 0.0 0.0 0.00 0.00 0.00 93 1012.1
20260505075523 45 76 0.0 0.0 0.00 0.00 0.00 93 1012.1
20260505075410 45 76 0.0 0.0 0.00 0.00 0.00 93 1012.0
20260505075315 45 76 0.0 0.0 0.00 0.00 0.00 93 1011.9
20260505075221 45 76 0.0 0.0 0.00 0.00 0.00 93 1011.9
20260505075154 45 76 0.0 0.0 0.00 0.00 0.00 93 1012.0
20260505075020 45 76 0.0 0.0 0.00 0.00 0.00 93 1011.9
20260505074926 45 76 0.0 0.0 0.00 0.00 0.00 93 1011.9
20260505074812 45 76 0.0 0.0 0.00 0.00 0.00 93 1011.9
20260505074718 45 76 0.0 0.0 0.00 0.00 0.00 93 1011.9
20260505074631 45 76 0.0 0.0 0.00 0.00 0.00 93 1012.0
20260505074520 45 76 0.0 0.0 0.00 0.00 0.00 93 1011.7
20260505074510 45 76 0.0 0.0 0.00 0.00 0.00 93 1011.9
20260505074447 45 76 0.0 0.0 0.00 0.00 0.00 93 1011.9
20260505074332 45 76 0.0 0.0 0.00 0.00 0.00 93 1011.9
20260505074224 45 76 0.0 0.0 0.00 0.00 0.00 93 1011.9
20260505074110 45 76 0.0 0.0 0.00 0.00 0.00 93 1011.9
20260505074016 45 76 0.0 0.0 0.00 0.00 0.00 93 1012.0
20260505073922 45 76 0.0 0.0 0.00 0.00 0.00 92 1012.0
20260505073839 45 76 0.0 0.0 0.00 0.00 0.00 93 1012.0
20260505073724 45 76 0.0 0.0 0.00 0.00 0.00 93 1012.0
20260505073610 45 76 0.0 0.0 0.00 0.00 0.00 93 1012.0
20260505073543 45 76 0.0 0.0 0.00 0.00 0.00 93 1012.0
20260505073428 46 76 0.0 0.0 0.00 0.00 0.00 93 1011.9
20260505073314 46 76 0.0 0.0 0.00 0.00 0.00 93 1012.0
20260505073224 46 76 0.0 0.0 0.00 0.00 0.00 93 1012.0
20260505073110 46 76 0.0 0.0 0.00 0.00 0.00 93 1011.9
20260505073046 45 76 0.0 0.0 0.00 0.00 0.00 93 1011.7
20260505073016 46 76 0.0 0.0 0.00 0.00 0.00 93 1011.9
20260505072929 46 76 0.0 0.0 0.00 0.00 0.00 93 1011.9
20260505072815 46 76 0.0 0.0 0.00 0.00 0.00 93 1011.9
20260505072721 46 76 0.0 0.0 0.00 0.00 0.00 93 1011.9
20260505072611 46 76 0.0 0.0 0.00 0.00 0.00 93 1011.8
20260505072517 46 76 0.0 0.0 0.00 0.00 0.00 93 1011.9
20260505072423 46 76 0.0 0.0 0.00 0.00 0.00 93 1011.9
20260505072336 46 76 0.0 0.0 0.00 0.00 0.00 93 1011.9
20260505072221 46 76 0.0 0.0 0.00 0.00 0.00 93 1011.9
20260505072111 46 76 0.0 0.0 0.00 0.00 0.00 93 1011.8
20260505072018 46 76 0.0 0.0 0.00 0.00 0.00 93 1011.8
20260505071923 46 76 0.0 0.0 0.00 0.00 0.00 93 1011.8
20260505071810 46 76 0.0 0.0 0.00 0.00 0.00 93 1011.8
20260505071716 46 76 0.0 0.0 0.00 0.00 0.00 93 1011.8
20260505071648 46 76 0.0 0.0 0.00 0.00 0.00 93 1011.8
20260505071553 45 76 0.0 0.0 0.00 0.00 0.00 93 1011.5
20260505071518 46 76 0.0 0.0 0.00 0.00 0.00 93 1011.8
20260505071448 46 76 0.0 0.0 0.00 0.00 0.00 93 1011.8
20260505071333 46 76 0.0 0.0 0.00 0.00 0.00 93 1011.8
20260505071219 46 76 0.0 0.0 0.00 0.00 0.00 93 1011.8
20260505071132 46 76 0.0 0.0 0.00 0.00 0.00 93 1011.8
20260505071018 46 76 0.0 0.0 0.00 0.00 0.00 92 1011.8
20260505070928 46 76 0.0 0.0 0.00 0.00 0.00 92 1011.8
20260505070814 46 76 0.0 0.0 0.00 0.00 0.00 92 1011.7
20260505070740 46 76 0.0 0.0 0.00 0.00 0.00 93 1011.7
20260505070632 46 76 0.0 0.0 0.00 0.00 0.00 93 1011.6
20260505070518 46 76 0.0 0.0 0.00 0.00 0.00 93 1011.7
20260505070424 46 76 0.0 0.0 0.00 0.00 0.00 93 1011.7
20260505070314 46 76 0.0 0.0 0.00 0.00 0.00 93 1011.8
20260505070220 46 76 0.0 0.0 0.00 0.00 0.00 93 1011.8
20260505070133 46 76 0.0 0.0 0.00 0.00 0.00 93 1011.7
20260505070104 46 76 0.0 0.0 0.00 0.00 0.00 93 1011.5
20260505070018 46 76 0.0 0.0 0.00 0.00 0.00 93 1011.7
20260505065924 46 76 0.0 0.0 0.00 0.00 0.00 93 1011.8
20260505065810 46 76 0.0 0.0 0.00 0.00 0.00 93 1011.8
20260505065720 46 76 0.0 0.0 0.00 0.00 0.00 93 1011.8
20260505065633 46 76 0.0 0.0 0.00 0.00 0.00 93 1011.8
20260505065519 46 76 0.0 0.0 0.00 0.00 0.00 93 1011.7
20260505065425 46 76 0.0 0.0 0.00 0.00 0.00 93 1011.8
20260505065311 46 76 0.0 0.0 0.00 0.00 0.00 93 1011.8
20260505065221 46 76 0.0 0.0 0.00 0.00 0.00 93 1011.8
20260505065113 46 76 0.0 0.0 0.00 0.00 0.00 93 1011.8
20260505065019 46 76 0.0 0.0 0.00 0.00 0.00 93 1011.8
20260505064925 46 76 0.0 0.0 0.00 0.00 0.00 93 1011.8
20260505064811 46 76 0.0 0.0 0.00 0.00 0.00 93 1011.7
20260505064717 46 76 0.0 0.0 0.00 0.00 0.00 92 1011.7
20260505064634 46 76 0.0 0.0 0.00 0.00 0.00 92 1011.7
20260505064520 46 76 0.0 0.0 0.00 0.00 0.00 92 1011.6
20260505064508 46 76 0.0 0.0 0.00 0.00 0.00 92 1011.3
20260505064423 46 76 0.0 0.0 0.00 0.00 0.00 92 1011.6
20260505064329 46 76 0.0 0.0 0.00 0.00 0.00 92 1011.7
20260505064214 46 76 0.0 0.0 0.00 0.00 0.00 92 1011.7
20260505064147 46 76 0.0 0.0 0.00 0.00 0.00 92 1011.7
20260505064026 46 76 0.0 0.0 0.00 0.00 0.00 92 1011.7
20260505063912 46 76 0.0 0.0 0.00 0.00 0.00 92 1011.7
20260505063818 46 76 0.0 0.0 0.00 0.00 0.00 92 1011.7
20260505063731 46 76 0.0 0.0 0.00 0.00 0.00 92 1011.7
20260505063617 46 76 0.0 0.0 0.00 0.00 0.00 92 1011.6
20260505063523 46 76 0.0 0.0 0.00 0.00 0.00 92 1011.6
20260505063433 47 76 0.0 0.0 0.00 0.00 0.00 92 1011.6
20260505063325 47 76 0.0 0.0 0.00 0.00 0.00 92 1011.6
20260505063231 47 76 0.0 0.0 0.00 0.00 0.00 92 1011.7
20260505063117 47 76 0.0 0.0 0.00 0.00 0.00 92 1011.7
20260505063056 46 76 0.0 0.0 0.00 0.00 0.00 92 1011.4
20260505063018 47 76 0.0 0.0 0.00 0.00 0.00 92 1011.7
20260505062948 47 76 0.0 0.0 0.00 0.00 0.00 92 1011.7
20260505062823 47 76 0.0 0.0 0.00 0.00 0.00 92 1011.7
20260505062729 47 76 0.0 0.0 0.00 0.00 0.00 92 1011.7
20260505062615 47 76 0.0 0.0 0.00 0.00 0.00 92 1011.7
20260505062525 47 76 0.0 0.0 0.00 0.00 0.00 92 1011.7
20260505062431 47 76 0.0 0.0 0.00 0.00 0.00 92 1011.6
20260505062404 47 76 0.0 0.0 0.00 0.00 0.00 92 1011.6
20260505062225 47 76 0.0 0.0 0.00 0.00 0.00 92 1011.6
20260505062115 47 76 0.0 0.0 0.00 0.00 0.00 92 1011.6
20260505062020 47 76 0.0 0.0 0.00 0.00 0.00 92 1011.6
20260505061927 47 76 0.0 0.0 0.00 0.00 0.00 92 1011.6
20260505061812 47 76 0.0 0.0 0.00 0.00 0.00 92 1011.6
20260505061725 47 76 0.0 0.0 0.00 0.00 0.00 92 1011.6
20260505061615 47 76 0.0 0.0 0.00 0.00 0.00 92 1011.4
20260505061612 46 76 0.0 0.0 0.00 0.00 0.00 92 1011.2
20260505061541 47 76 0.0 0.0 0.00 0.00 0.00 92 1011.4
20260505061433 47 76 0.0 0.0 0.00 0.00 0.00 92 1011.5
20260505061341 47 76 0.0 0.0 0.00 0.00 0.00 92 1011.4
20260505061226 47 76 0.0 0.0 0.00 0.00 0.00 92 1011.4
20260505061112 47 76 0.0 0.0 0.00 0.00 0.00 92 1011.4
20260505061022 47 76 0.0 0.0 0.00 0.00 0.00 92 1011.4
20260505060935 47 76 0.0 0.0 0.00 0.00 0.00 92 1011.5
20260505060821 47 76 0.0 0.0 0.00 0.00 0.00 92 1011.5
20260505060727 47 76 0.0 0.0 0.00 0.00 0.00 92 1011.4
20260505060613 47 76 0.0 0.0 0.00 0.00 0.00 92 1011.5
20260505060519 47 76 0.0 0.0 0.00 0.00 0.00 92 1011.5
20260505060409 47 76 0.0 0.0 0.00 0.00 0.00 92 1011.5
20260505060316 47 76 0.0 0.0 0.00 0.00 0.00 91 1011.5
20260505060228 47 76 0.0 0.0 0.00 0.00 0.00 91 1011.5
20260505060114 47 76 0.0 0.0 0.00 0.00 0.00 91 1011.5
20260505060020 47 76 0.0 0.0 0.00 0.00 0.00 92 1011.5
20260505055930 47 76 0.0 0.0 0.00 0.00 0.00 92 1011.5
20260505055822 47 76 0.0 0.0 0.00 0.00 0.00 92 1011.5
20260505055748 47 76 0.0 0.0 0.00 0.00 0.00 92 1011.6
20260505055640 47 76 0.0 0.0 0.00 0.00 0.00 92 1011.5
20260505055525 48 76 0.0 0.0 0.00 0.00 0.00 92 1011.4
20260505055412 48 76 0.0 0.0 0.00 0.00 0.00 92 1011.4
20260505055317 48 76 0.0 0.0 0.00 0.00 0.00 92 1011.4
20260505055227 48 76 0.0 0.0 0.00 0.00 0.00 92 1011.5
20260505055113 48 76 0.0 0.0 0.00 0.00 0.00 92 1011.4
20260505055026 48 76 0.0 0.0 0.00 0.00 0.00 92 1011.4
20260505054912 48 76 0.0 0.0 0.00 0.00 0.00 92 1011.4
20260505054818 48 76 0.0 0.0 0.00 0.00 0.00 92 1011.4
20260505054728 48 76 0.0 0.0 0.00 0.00 0.00 92 1011.4
20260505054614 48 76 0.0 0.0 0.00 0.00 0.00 92 1011.4
20260505054554 47 76 0.0 0.0 0.00 0.00 0.00 92 1011.1
20260505054520 48 76 0.0 0.0 0.00 0.00 0.00 92 1011.4
20260505054433 48 76 0.0 0.0 0.00 0.00 0.00 92 1011.4
20260505054318 48 76 0.0 0.0 0.00 0.00 0.00 92 1011.4
20260505054224 48 76 0.0 0.0 0.00 0.00 0.00 92 1011.4
20260505054114 48 76 0.0 0.0 0.00 0.00 0.00 92 1011.4
20260505054026 48 76 0.0 0.0 0.00 0.00 0.00 92 1011.4
20260505053913 48 76 0.0 0.0 0.00 0.00 0.00 92 1011.4
20260505053819 48 76 0.0 0.0 0.00 0.00 0.00 92 1011.4
20260505053725 48 76 0.0 0.0 0.00 0.00 0.00 92 1011.4
20260505053615 48 76 0.0 0.0 0.00 0.00 0.00 92 1011.4
20260505053548 48 76 0.0 0.0 0.00 0.00 0.00 92 1011.4
20260505053412 48 76 0.0 0.0 0.00 0.00 0.00 92 1011.4
20260505053318 48 76 0.0 0.0 0.00 0.00 0.00 91 1011.4
20260505053252 48 76 0.0 0.0 0.00 0.00 0.00 91 1011.4
20260505053116 48 76 0.0 0.0 0.00 0.00 0.00 91 1011.4
20260505053114 48 76 0.0 0.0 0.00 0.00 0.00 91 1011.1
20260505053043 48 76 0.0 0.0 0.00 0.00 0.00 91 1011.4
20260505052938 48 76 0.0 0.0 0.00 0.00 0.00 91 1011.4
20260505052823 48 76 0.0 0.0 0.00 0.00 0.00 91 1011.4
20260505052709 48 76 0.0 0.0 0.00 0.00 0.00 91 1011.4
20260505052615 48 76 0.0 0.0 0.00 0.00 0.00 91 1011.4
20260505052548 48 76 0.0 0.0 0.00 0.00 0.00 91 1011.4
20260505052413 48 76 0.0 0.0 0.00 0.00 0.00 91 1011.5
20260505052323 48 76 0.0 0.0 0.00 0.00 0.00 91 1011.5
20260505052209 48 76 0.0 0.0 0.00 0.00 0.00 91 1011.5
20260505052116 48 76 0.0 0.0 0.00 0.00 0.00 91 1011.5
20260505052028 48 76 0.0 0.0 0.00 0.00 0.00 91 1011.5
20260505051915 48 76 0.0 0.0 0.00 0.00 0.00 91 1011.4
20260505051820 48 76 0.0 0.0 0.00 0.00 0.00 91 1011.4
20260505051710 48 76 0.0 0.0 0.00 0.00 0.00 91 1011.5
20260505051636 48 76 0.0 0.0 0.00 0.00 0.00 91 1011.5
20260505051528 48 76 0.0 0.0 0.00 0.00 0.00 91 1011.5
20260505051508 48 76 0.0 0.0 0.00 0.00 0.00 91 1011.2
20260505051414 49 76 0.0 0.0 0.00 0.00 0.00 91 1011.5
20260505051320 49 76 0.0 0.0 0.00 0.00 0.00 91 1011.5
20260505051210 49 76 0.0 0.0 0.00 0.00 0.00 91 1011.5
20260505051116 49 76 0.0 0.0 0.00 0.00 0.00 91 1011.4
20260505051029 49 76 0.0 0.0 0.00 0.00 0.00 91 1011.4
20260505050935 49 76 0.0 0.0 0.00 0.00 0.00 91 1011.5
20260505050821 49 76 0.0 0.0 0.00 0.00 0.00 91 1011.5
20260505050727 49 76 0.0 0.0 0.00 0.00 0.00 90 1011.5
20260505050617 49 76 0.0 0.0 0.00 0.00 0.00 90 1011.5
20260505050523 49 76 0.0 0.0 0.00 0.00 0.00 90 1011.5
20260505050409 49 76 0.0 0.0 0.00 0.00 0.00 91 1011.5
20260505050322 49 76 0.0 0.0 0.00 0.00 0.00 91 1011.5
20260505050228 49 76 0.0 0.0 0.00 0.00 0.00 91 1011.5
20260505050118 49 76 0.0 0.0 0.00 0.00 0.00 91 1011.5
20260505041756 51 76 0.0 0.0 0.00 0.00 0.00 91 1011.4
20260505041621 51 76 0.0 0.0 0.00 0.00 0.00 91 1011.3
20260505041527 51 76 0.0 0.0 0.00 0.00 0.00 90 1011.4
20260505041506 50 76 0.0 0.0 0.00 0.00 0.00 90 1011.0
20260505041433 51 76 0.0 0.0 0.00 0.00 0.00 90 1011.3
20260505041322 51 76 0.0 0.0 0.00 0.00 0.00 90 1011.3
20260505041235 51 76 0.0 0.0 0.00 0.00 0.00 90 1011.4
20260505041141 51 76 0.0 0.0 0.00 0.00 0.00 90 1011.4
20260505041026 51 76 0.0 0.0 0.00 0.00 0.00 90 1011.3
20260505040912 51 76 0.0 0.0 0.00 0.00 0.00 90 1011.3
20260505040825 51 76 0.0 0.0 0.00 0.00 0.00 90 1011.3
20260505040715 51 76 0.0 0.0 0.00 0.00 0.00 90 1011.4
20260505040621 51 76 0.0 0.0 0.00 0.00 0.00 90 1011.4
20260505040527 51 76 0.0 0.0 0.00 0.00 0.00 90 1011.3
20260505040433 51 76 0.0 0.0 0.00 0.00 0.00 90 1011.3
20260505040325 51 76 0.0 0.0 0.00 0.00 0.00 90 1011.3
20260505040231 51 76 0.0 0.0 0.00 0.00 0.00 90 1011.3
20260505040134 51 76 0.0 0.0 0.00 0.00 0.00 90 1011.1
20260505040120 51 76 0.0 0.0 0.00 0.00 0.00 90 1011.3
20260505040033 51 76 0.0 0.0 0.00 0.00 0.00 90 1011.4
20260505035918 51 76 0.0 0.0 0.00 0.00 0.00 90 1011.4
20260505035824 51 76 0.0 0.0 0.00 0.00 0.00 90 1011.3
20260505035710 51 76 0.0 0.0 0.00 0.00 0.00 90 1011.4
20260505035616 51 76 0.0 0.0 0.00 0.00 0.00 90 1011.4
20260505035514 51 76 0.0 0.0 0.00 0.00 0.00 90 1011.3
20260505035418 51 76 0.0 0.0 0.00 0.00 0.00 89 1011.3
20260505035325 52 76 0.0 0.0 0.00 0.00 0.00 89 1011.3
20260505035210 52 76 0.0 0.0 0.00 0.00 0.00 89 1011.3
20260505035117 52 76 0.0 0.0 0.00 0.00 0.00 89 1011.3
20260505035030 52 76 0.0 0.0 0.00 0.00 0.00 89 1011.3
20260505034939 52 76 0.0 0.0 0.00 0.00 0.00 89 1011.3
20260505034831 52 76 0.0 0.0 0.00 0.00 0.00 89 1011.3
20260505034738 52 76 0.0 0.0 0.00 0.00 0.00 89 1011.3
20260505034650 52 76 0.0 0.0 0.00 0.00 0.00 89 1011.4
20260505034515 52 76 0.0 0.0 0.00 0.00 0.00 89 1011.4
20260505034510 51 76 0.0 0.0 0.00 0.00 0.00 89 1011.1
20260505034441 52 76 0.0 0.0 0.00 0.00 0.00 89 1011.4
20260505034326 52 76 0.0 0.0 0.00 0.00 0.00 89 1011.4
20260505034215 52 76 0.0 0.0 0.00 0.00 0.00 89 1011.4
20260505034128 52 76 0.0 0.0 0.00 0.00 0.00 89 1011.4
20260505034014 52 76 0.0 0.0 0.00 0.00 0.00 89 1011.3
20260505033920 52 76 0.0 0.0 0.00 0.00 0.00 89 1011.3
20260505033826 52 76 0.0 0.0 0.00 0.00 0.00 89 1011.3
20260505033740 52 76 0.0 0.0 0.00 0.00 0.00 89 1011.3
20260505033628 52 76 0.0 0.0 0.00 0.00 0.00 89 1011.3
20260505033534 52 76 0.0 0.0 0.00 0.00 0.00 89 1011.4
20260505033419 52 76 0.0 0.0 0.00 0.00 0.00 89 1011.3
20260505033332 52 76 0.0 0.0 0.00 0.00 0.00 89 1011.3
20260505033239 53 76 0.0 0.0 0.00 0.00 0.00 89 1011.4
20260505033124 53 76 0.0 0.0 0.00 0.00 0.00 89 1011.4
20260505033030 52 76 0.0 0.0 0.00 0.00 0.00 89 1011.1
20260505033014 53 76 0.0 0.0 0.00 0.00 0.00 89 1011.4
20260505032927 53 76 0.0 0.0 0.00 0.00 0.00 89 1011.4
20260505032833 53 76 0.0 0.0 0.00 0.00 0.00 88 1011.4
20260505032718 53 76 0.0 0.0 0.00 0.00 0.00 88 1011.4
20260505032631 53 76 0.0 0.0 0.00 0.00 0.00 88 1011.4
20260505032510 53 76 0.0 0.0 0.00 0.00 0.00 88 1011.4
20260505032427 53 76 0.0 0.0 0.00 0.00 0.00 88 1011.4
20260505032313 53 76 0.0 0.0 0.00 0.00 0.00 88 1011.4
20260505032220 53 76 0.0 0.0 0.00 0.00 0.00 88 1011.4
20260505032125 53 76 0.0 0.0 0.00 0.00 0.00 89 1011.4
20260505032011 53 76 0.0 0.0 0.00 0.00 0.00 88 1011.4
20260505031928 53 76 0.0 0.0 0.00 0.00 0.00 89 1011.4
20260505031811 53 76 0.0 0.0 0.00 0.00 0.00 89 1011.4
20260505031717 53 76 0.0 0.0 0.00 0.00 0.00 89 1011.4
20260505031623 53 76 0.0 0.0 0.00 0.00 0.00 89 1011.4
20260505031556 53 76 0.0 0.0 0.00 0.00 0.00 89 1011.2
20260505031528 53 76 0.0 0.0 0.00 0.00 0.00 89 1011.4
20260505031442 53 76 0.0 0.0 0.00 0.00 0.00 88 1011.5
20260505031311 54 76 0.0 0.0 0.00 0.00 0.00 88 1011.5
20260505031217 54 76 0.0 0.0 0.00 0.00 0.00 88 1011.4
20260505031122 54 76 0.0 0.0 0.00 0.00 0.00 88 1011.4
20260505031035 54 76 0.0 0.0 0.00 0.00 0.00 88 1011.5
20260505030941 54 76 0.0 0.0 0.00 0.00 0.00 88 1011.5
20260505030832 54 76 0.0 0.0 0.00 0.00 0.00 88 1011.5
20260505030722 54 76 0.0 0.0 0.00 0.00 0.00 89 1011.5
20260505030629 54 76 0.0 0.0 0.00 0.00 0.00 89 1011.5
20260505030514 54 76 0.0 0.0 0.00 0.00 0.00 89 1011.5
20260505030420 54 76 0.0 0.0 0.00 0.00 0.00 88 1011.5
20260505030325 54 76 0.0 0.0 0.00 0.00 0.00 88 1011.5
20260505030211 54 76 0.0 0.0 0.00 0.00 0.00 88 1011.6
20260505030128 54 76 0.0 0.0 0.00 0.00 0.00 88 1011.6
20260505030014 54 76 0.0 0.0 0.00 0.00 0.00 88 1011.6
20260505030006 54 76 0.0 0.0 0.00 0.00 0.00 88 1011.3
20260505025920 54 76 0.0 0.0 0.00 0.00 0.00 88 1011.6
20260505025827 54 76 0.0 0.0 0.00 0.00 0.00 88 1011.6
20260505025733 54 76 0.0 0.0 0.00 0.00 0.00 88 1011.6
20260505025645 54 76 0.0 0.0 0.00 0.00 0.00 88 1011.6
20260505025514 54 76 0.0 0.0 0.00 0.00 0.00 88 1011.6
20260505025421 54 76 0.0 0.0 0.00 0.00 0.00 88 1011.6
20260505025334 54 76 0.0 0.0 0.00 0.00 0.00 88 1011.6
20260505025220 54 76 0.0 0.0 0.00 0.00 0.00 88 1011.6
20260505025127 54 76 0.0 0.0 0.00 0.00 0.00 88 1011.6
20260505025017 54 76 0.0 0.0 0.00 0.00 0.00 88 1011.6
20260505024924 54 76 0.0 0.0 0.00 0.00 0.00 87 1011.6
20260505024810 54 76 0.0 0.0 0.00 0.00 0.00 87 1011.5
20260505024716 55 76 0.0 0.0 0.00 0.00 0.00 87 1011.6
20260505024649 55 76 0.0 0.0 0.00 0.00 0.00 87 1011.6
20260505024554 54 76 0.0 0.0 0.00 0.00 0.00 86 1011.3
20260505024513 55 76 0.0 0.0 0.00 0.00 0.00 86 1011.6
20260505024423 55 76 0.0 0.0 0.00 0.00 0.00 86 1011.6
20260505024309 55 76 0.0 0.0 0.00 0.00 0.00 86 1011.6
20260505024242 55 76 0.0 0.0 0.00 0.00 0.00 86 1011.6
20260505024127 55 76 0.0 0.0 0.00 0.00 0.00 86 1011.7
20260505024033 55 76 0.0 0.0 0.00 0.00 0.00 86 1011.6
20260505023925 55 76 0.0 0.0 0.00 0.00 0.00 86 1011.6
20260505023815 55 76 0.0 0.0 0.00 0.00 0.00 86 1011.7
20260505023741 55 76 0.0 0.0 0.00 0.00 0.00 87 1011.7
20260505023632 55 76 0.0 0.0 0.00 0.00 0.00 87 1011.7
20260505023518 55 76 0.0 0.0 0.00 0.00 0.00 87 1011.7
20260505023421 56 76 0.0 0.0 0.00 0.00 0.00 87 1011.7
20260505023354 56 76 0.0 0.0 0.00 0.00 0.00 87 1011.7
20260505023220 56 76 0.0 0.0 0.00 0.00 0.00 87 1011.7
20260505023121 55 76 0.0 0.0 0.00 0.00 0.00 87 1011.5
20260505023110 56 76 0.0 0.0 0.00 0.00 0.00 86 1011.7
20260505023016 56 76 0.0 0.0 0.00 0.00 0.00 87 1011.7
20260505022922 56 76 0.0 0.0 0.00 0.00 0.00 87 1011.7
20260505022855 56 76 0.0 0.0 0.00 0.00 0.00 87 1011.7
20260505022720 56 76 0.0 0.0 0.00 0.00 0.00 86 1011.7
20260505022610 56 76 0.0 0.0 0.00 0.00 0.00 86 1011.7
20260505022515 56 76 0.0 0.0 0.00 0.00 0.00 86 1011.8
20260505022421 56 76 0.0 0.0 0.00 0.00 0.00 86 1011.8
20260505022334 56 76 0.0 0.0 0.00 0.00 0.00 86 1011.7
20260505022221 56 76 0.0 0.0 0.00 0.00 0.00 86 1011.8
20260505022127 56 76 0.0 0.0 0.00 0.00 0.00 85 1011.8
20260505022017 56 76 0.0 0.0 0.00 0.00 0.00 85 1011.7
20260505021920 56 76 0.0 0.0 0.00 0.00 0.00 85 1011.7
20260505021826 56 76 0.0 0.0 0.00 0.00 0.00 85 1011.6
20260505021739 56 76 0.0 0.0 0.00 0.00 0.00 85 1011.6
20260505021618 56 76 0.0 0.0 0.00 0.00 0.00 84 1011.6
20260505021606 56 76 0.0 0.0 0.00 0.00 0.00 84 1011.3
20260505021524 56 76 0.0 0.0 0.00 0.00 0.00 84 1011.6
20260505021414 57 76 0.0 0.0 0.00 0.00 0.00 84 1011.6
20260505021344 57 76 0.0 0.0 0.00 0.00 0.00 84 1011.6
20260505021239 57 76 0.0 0.0 0.00 0.00 0.00 84 1011.6
20260505021138 57 76 0.0 0.0 0.00 0.00 0.00 84 1011.6
20260505021019 57 76 0.0 0.0 0.00 0.00 0.00 84 1011.6
20260505020931 57 76 0.0 0.0 0.00 0.00 0.00 83 1011.6
20260505020821 57 76 0.0 0.0 0.00 0.00 0.00 83 1011.6
20260505020727 57 76 0.0 0.0 0.00 0.00 0.00 84 1011.6
20260505020633 57 76 0.0 0.0 0.00 0.00 0.00 84 1011.6
20260505020534 57 76 0.0 0.0 0.00 0.00 0.00 83 1011.7
20260505020435 57 76 0.0 0.0 0.00 0.00 0.00 83 1011.7
20260505020325 57 76 0.0 0.0 0.00 0.00 0.00 83 1011.7
20260505020215 57 76 0.0 0.0 0.00 0.00 0.00 83 1011.6
20260505020121 57 76 0.0 0.0 0.00 0.00 0.00 83 1011.6
20260505020057 57 76 0.0 0.0 0.00 0.00 0.00 83 1011.3
20260505020021 57 76 0.0 0.0 0.00 0.00 0.00 83 1011.6
20260505015924 57 76 0.0 0.0 0.00 0.00 0.00 83 1011.6
20260505015826 58 76 0.0 0.0 0.00 0.00 0.00 83 1011.6
20260505015726 58 76 0.0 0.0 0.00 0.00 0.00 82 1011.6
20260505015609 58 76 0.0 0.0 0.00 0.00 0.00 82 1011.6
20260505015516 58 76 0.0 0.0 0.00 0.00 0.00 82 1011.6
20260505015429 58 76 0.0 0.0 0.00 0.00 0.00 82 1011.6
20260505015312 58 76 0.0 0.0 0.00 0.00 0.00 82 1011.6
20260505015229 58 76 0.0 0.0 0.00 0.00 0.00 81 1011.6
20260505015114 58 76 0.0 0.0 0.00 0.00 0.00 82 1011.6
20260505015021 58 76 0.0 0.0 0.00 0.00 0.00 82 1011.6
20260505014934 58 76 0.0 0.0 0.00 0.00 0.00 82 1011.7
20260505014821 58 76 0.0 0.0 0.00 0.00 0.00 81 1011.7
20260505014727 58 76 0.0 0.0 0.00 0.00 0.00 81 1011.7
20260505014613 59 76 0.0 0.0 0.00 0.00 0.00 80 1011.7
20260505014546 59 76 0.0 0.0 0.00 0.00 0.00 80 1011.7
20260505014525 58 76 0.0 0.0 0.00 0.00 0.00 80 1011.5
20260505014415 59 76 0.0 0.0 0.00 0.00 0.00 81 1011.7
20260505014341 59 76 0.0 0.0 0.00 0.00 0.00 80 1011.7
20260505014235 59 76 0.0 0.0 0.00 0.00 0.00 81 1011.7
20260505014112 59 76 0.0 0.0 0.00 0.00 0.00 80 1011.7
20260505014026 59 76 0.0 0.0 0.00 0.00 0.00 79 1011.7
20260505013925 59 76 0.0 0.0 0.00 0.00 0.00 79 1011.7
20260505013816 59 76 0.0 0.0 0.00 0.00 0.00 79 1011.7
20260505013712 60 76 0.0 0.0 0.00 0.00 0.00 80 1011.7
20260505013625 60 76 0.0 0.0 0.00 0.00 0.00 80 1011.7
20260505013528 60 76 0.0 0.0 0.00 0.00 0.00 80 1011.7
20260505013435 60 76 0.0 0.0 0.00 0.00 0.00 79 1011.7
20260505013342 60 76 0.0 0.0 0.00 0.00 0.00 79 1011.7
20260505013225 60 76 0.0 0.0 0.00 0.00 0.00 79 1011.7
20260505013140 60 76 0.0 0.0 0.00 0.00 0.00 79 1011.7
20260505013113 60 76 0.0 0.0 0.00 0.00 0.00 79 1011.4
20260505013041 60 76 0.0 0.0 0.00 0.00 0.00 79 1011.7
20260505012953 60 76 0.0 0.0 0.00 0.00 0.00 79 1011.6
20260505012816 60 76 0.0 0.0 0.00 0.00 0.00 78 1011.6
20260505012722 60 76 0.0 0.0 0.00 0.00 0.00 78 1011.6
20260505012654 60 76 0.0 0.0 0.00 0.00 0.00 77 1011.6
20260505012522 60 76 0.0 0.0 0.00 0.00 0.00 77 1011.6
20260505012412 61 76 0.0 0.0 0.00 0.00 0.00 77 1011.5
20260505012314 61 76 0.0 0.0 0.00 0.00 0.00 77 1011.4
20260505012227 61 76 0.0 0.0 0.00 0.00 0.00 77 1011.4
20260505012113 61 76 0.0 0.0 0.00 0.00 0.00 77 1011.4
20260505012018 61 76 0.0 0.0 0.00 0.00 0.00 77 1011.4
20260505011924 61 76 0.0 0.0 0.00 0.00 0.00 77 1011.4
20260505011811 61 76 0.0 0.0 0.00 0.00 0.00 77 1011.4
20260505011717 61 76 0.0 0.0 0.00 0.00 0.00 77 1011.4
20260505011630 61 76 0.0 0.0 0.00 0.00 0.00 76 1011.4
20260505011617 60 76 0.0 0.0 0.00 0.00 0.00 76 1011.1
20260505011529 61 76 0.0 0.0 0.00 0.00 0.00 76 1011.3
20260505011448 61 76 0.0 0.0 0.00 0.00 0.00 76 1011.3
20260505011319 61 76 0.0 0.0 0.00 0.00 0.00 76 1011.3
20260505011226 61 75 0.0 0.0 0.00 0.00 0.00 76 1011.3
20260505011112 61 71 0.0 0.0 0.00 0.00 0.00 76 1011.2
20260505011018 61 71 0.0 0.0 0.00 0.00 0.00 76 1011.2
20260505010928 61 71 0.0 0.0 0.00 0.00 0.00 76 1011.2
20260505010831 61 71 0.0 0.0 0.00 0.00 0.00 75 1011.2
20260505010804 62 71 0.0 0.0 0.00 0.00 0.00 75 1011.2
20260505010640 62 71 0.0 0.0 0.00 0.00 0.00 75 1011.2
20260505010528 62 71 0.0 0.0 0.00 0.00 0.00 75 1011.2
20260505010414 62 71 0.0 0.0 0.00 0.00 0.00 75 1011.1
20260505010327 62 71 0.0 0.0 0.00 0.00 0.00 75 1011.1
20260505010214 62 71 0.0 0.0 0.00 0.00 0.00 74 1011.1
20260505010119 62 71 0.0 0.0 0.00 0.00 0.00 73 1011.1
20260505010057 62 71 0.0 0.0 0.00 0.00 0.00 73 1010.9
20260505010025 62 71 0.0 0.0 0.00 0.00 0.00 74 1011.1
20260505005927 62 71 0.0 0.0 0.00 0.00 0.00 74 1011.1
20260505005840 63 71 0.0 0.0 0.00 0.00 0.00 73 1011.1
20260505005737 63 71 0.0 0.0 0.00 0.00 0.00 73 1011.1
20260505005647 63 71 0.0 0.0 0.00 0.00 0.00 73 1011.0
20260505005517 63 71 0.0 0.0 0.00 0.00 0.00 73 1011.0
20260505005423 63 71 0.0 0.0 0.00 0.00 0.00 73 1011.0
20260505005337 63 71 0.0 0.0 0.00 0.00 0.00 73 1011.0
20260505005216 63 71 0.0 0.0 0.00 0.00 0.00 72 1010.9
20260505005118 63 71 0.0 0.0 0.00 0.00 0.00 72 1010.9
20260505005014 63 71 0.0 0.0 0.00 0.00 0.00 73 1010.9
20260505004920 63 71 0.0 0.0 0.00 0.00 0.00 73 1010.9
20260505004832 63 71 0.0 0.0 0.00 0.00 0.00 72 1010.9
20260505004717 63 71 0.0 0.0 0.00 0.00 0.00 73 1010.9
20260505004623 63 71 0.0 0.0 0.00 0.00 0.00 72 1010.9
20260505004554 63 67 0.0 0.0 0.00 0.00 0.00 72 1010.7
20260505004530 63 56 0.0 0.0 0.00 0.00 0.00 72 1010.9
20260505004422 63 56 0.0 0.0 0.00 0.00 0.00 71 1010.9
20260505004321 63 56 0.0 0.0 0.00 0.00 0.00 71 1010.9
20260505004227 63 56 0.0 0.0 0.00 0.00 0.00 72 1010.9
20260505004114 63 56 0.0 0.0 0.00 0.00 0.00 71 1010.9
20260505004025 63 56 0.0 0.0 0.00 0.00 0.00 71 1010.9
20260505003930 63 56 0.0 0.0 0.00 0.00 0.00 71 1010.9
20260505003856 64 56 0.0 0.0 0.00 0.00 0.00 71 1010.8
20260505003734 64 56 0.0 0.0 0.00 0.00 0.00 71 1010.9
20260505003614 64 56 0.0 0.0 0.00 0.00 0.00 71 1010.9
20260505003514 64 56 0.0 0.0 0.00 0.00 0.00 72 1010.8
20260505003420 64 56 0.0 0.0 0.00 0.00 0.00 72 1010.9
20260505003331 64 56 0.0 0.0 0.00 0.00 0.00 71 1010.9
20260505003234 64 56 0.0 0.0 0.00 0.00 0.00 70 1010.9
20260505003146 64 56 0.0 0.0 0.00 0.00 0.00 70 1010.9
20260505003010 64 56 0.0 0.0 0.00 0.00 0.00 70 1010.9
20260505003001 64 56 0.0 0.0 0.00 0.00 0.00 70 1010.6
20260505002915 64 56 0.0 0.0 0.00 0.00 0.00 69 1010.8
20260505002825 64 56 0.0 0.0 0.00 0.00 0.00 69 1010.8
20260505002711 65 56 0.0 0.0 0.00 0.00 0.00 69 1010.8
20260505002617 65 56 0.0 0.0 0.00 0.00 0.00 68 1010.8
20260505002547 65 56 0.0 0.0 0.00 0.00 0.00 68 1010.8
20260505002427 65 56 0.0 0.0 0.00 0.00 0.00 68 1010.8
20260505002336 65 56 0.0 0.0 0.00 0.00 0.00 68 1010.8
20260505002222 65 56 0.0 0.0 0.00 0.00 0.00 68 1010.8
20260505002123 65 56 0.0 0.0 0.00 0.00 0.00 68 1010.8
20260505002010 65 56 0.0 0.0 0.00 0.00 0.00 67 1010.7
20260505001915 65 56 0.0 0.0 0.00 0.00 0.00 67 1010.6
20260505001819 66 56 0.0 0.0 0.00 0.00 0.00 67 1010.6
20260505001731 66 56 0.0 0.0 0.00 0.00 0.00 67 1010.6
20260505001641 66 56 0.0 0.0 0.00 0.00 0.00 67 1010.6
20260505001542 65 56 0.0 0.0 0.00 0.00 0.00 67 1010.4
20260505001526 66 56 0.0 0.0 0.00 0.00 0.00 67 1010.6
20260505001440 66 56 0.0 0.0 0.00 0.00 0.00 67 1010.6
20260505001324 66 56 0.0 0.0 0.00 0.00 0.00 67 1010.6
20260505001223 66 56 0.0 0.0 0.00 0.00 0.00 67 1010.6
20260505001136 66 56 0.0 0.0 0.00 0.00 0.00 65 1010.6
20260505001039 66 56 0.0 0.0 0.00 0.00 0.00 65 1010.6
20260505000924 67 56 0.0 0.0 0.00 0.00 0.00 65 1010.6
20260505000826 67 56 0.0 0.0 0.00 0.00 0.00 65 1010.6
20260505000739 67 56 0.0 0.0 0.00 0.00 0.00 65 1010.7
20260505000642 67 56 0.0 0.0 0.00 0.00 0.00 65 1010.7
20260505000522 67 56 0.0 0.0 0.00 0.00 0.00 64 1010.7
20260505000413 67 56 0.0 0.0 0.00 0.00 0.00 64 1010.7
20260505000324 67 56 0.0 0.0 0.00 0.00 0.00 64 1010.7
20260505000211 67 56 0.0 0.0 0.00 0.00 0.00 63 1010.5
20260505000116 68 56 0.0 0.0 0.00 0.00 0.00 64 1010.5
20260505000106 67 56 0.0 0.0 0.00 0.00 0.00 64 1010.3
20260505000022 68 56 0.0 0.0 0.00 0.00 0.00 62 1010.5
20260504235927 68 56 0.0 0.0 0.00 0.00 0.00 62 1010.6
20260504235817 68 56 0.0 0.0 0.00 0.00 0.00 62 1010.7
20260504235730 68 56 0.0 0.0 0.00 0.00 0.00 62 1010.7
20260504235616 68 56 0.0 0.0 0.00 0.00 0.00 62 1010.7
20260504235535 68 56 0.0 0.0 0.00 0.00 0.00 62 1010.6
20260504235427 68 56 0.0 1.0 0.00 0.00 0.00 61 1010.6
20260504235315 68 56 0.0 1.0 0.00 0.00 0.00 61 1010.6
20260504235223 68 56 0.0 1.0 0.00 0.00 0.00 61 1010.6
20260504235109 69 56 0.0 1.0 0.00 0.00 0.00 59 1010.6
20260504235015 69 56 0.0 1.0 0.00 0.00 0.00 59 1010.7
20260504234928 69 47 0.0 1.0 0.00 0.00 0.00 59 1010.7
20260504234814 69 34 0.0 1.0 0.00 0.00 0.00 60 1010.7
20260504234720 69 25 0.0 1.0 0.00 0.00 0.00 60 1010.7
20260504234610 69 355 0.0 1.0 0.00 0.00 0.00 59 1010.8
20260504234543 69 13 0.0 0.0 0.00 0.00 0.00 59 1010.8
20260504234507 69 13 0.0 0.0 0.00 0.00 0.00 58 1010.5
20260504234428 69 13 0.0 0.0 0.00 0.00 0.00 59 1010.7
20260504234314 69 65 0.0 0.0 0.00 0.00 0.00 58 1010.8
20260504234220 70 61 0.0 0.0 0.00 0.00 0.00 57 1010.8
20260504234123 70 74 0.0 0.0 0.00 0.00 0.00 58 1010.8
20260504234013 70 55 0.0 0.0 0.00 0.00 0.00 58 1010.7
20260504233923 70 292 0.0 0.0 0.00 0.00 0.00 58 1010.7
20260504233828 70 294 0.0 0.0 0.00 0.00 0.00 57 1010.7
20260504233714 70 347 0.0 0.0 0.00 0.00 0.00 56 1010.7
20260504233620 70 310 0.0 0.0 0.00 0.00 0.00 57 1010.7
20260504233537 70 267 0.0 0.0 0.00 0.00 0.00 57 1010.7
20260504233422 71 254 0.0 0.0 0.00 0.00 0.00 55 1010.7
20260504233327 71 53 0.0 1.0 0.00 0.00 0.00 55 1010.6
20260504233213 71 40 0.0 4.0 0.00 0.00 0.00 54 1010.5
20260504233117 71 69 0.0 12.0 0.00 0.00 0.00 54 1010.6
20260504233031 71 37 0.0 12.0 0.00 0.00 0.00 54 1010.6
20260504233013 71 36 0.0 12.0 0.00 0.00 0.00 54 1010.4
20260504232919 72 5 0.0 12.0 0.00 0.00 0.00 53 1010.5
20260504232825 72 49 0.0 12.0 0.00 0.00 0.00 53 1010.5
20260504232712 72 26 0.0 12.0 0.00 0.00 0.00 52 1010.4
20260504232618 72 305 0.0 12.0 0.00 0.00 0.00 52 1010.4
20260504232524 72 5 0.0 12.0 0.00 0.00 0.00 51 1010.4
20260504232413 72 321 3.0 12.0 0.00 0.00 0.00 51 1010.3
20260504232325 72 261 4.0 12.0 0.00 0.00 0.00 50 1010.3
20260504232212 73 355 1.0 5.0 0.00 0.00 0.00 49 1010.3
20260504232118 73 57 0.0 4.0 0.00 0.00 0.00 50 1010.2
20260504232024 73 24 0.0 1.0 0.00 0.00 0.00 49 1010.2
20260504231911 73 213 0.0 0.0 0.00 0.00 0.00 49 1010.2
20260504231848 73 207 0.0 0.0 0.00 0.00 0.00 49 1010.2
20260504231732 73 339 0.0 1.0 0.00 0.00 0.00 50 1010.2
20260504231624 73 314 0.0 1.0 0.00 0.00 0.00 48 1010.2
20260504231530 73 323 0.0 1.0 0.00 0.00 0.00 48 1010.2
20260504231506 72 304 0.0 1.0 0.00 0.00 0.00 48 1009.9
20260504231416 73 333 0.0 1.0 0.00 0.00 0.00 49 1010.1
20260504231322 72 28 0.0 1.0 0.00 0.00 0.00 49 1010.1
20260504231213 72 360 0.0 1.0 0.00 0.00 0.00 49 1010.1
20260504231118 72 49 0.0 1.0 0.00 0.00 0.00 50 1010.0
20260504231031 72 342 0.0 1.0 0.00 0.00 0.00 51 1010.0
20260504230916 72 355 0.0 1.0 0.00 0.00 0.00 55 1010.0
20260504230822 72 145 0.0 0.0 0.00 0.00 0.00 54 1010.0
20260504230728 72 145 0.0 0.0 0.00 0.00 0.00 55 1010.0
20260504230626 72 145 0.0 0.0 0.00 0.00 0.00 54 1010.0
20260504230551 72 145 0.0 0.0 0.00 0.00 0.00 54 1010.0
20260504230413 72 145 0.0 0.0 0.00 0.00 0.00 55 1010.0
20260504230319 72 145 0.0 0.0 0.00 0.00 0.00 51 1010.0
20260504230232 72 145 0.0 0.0 0.00 0.00 0.00 52 1010.0
20260504230118 72 145 0.0 0.0 0.00 0.00 0.00 51 1010.0
20260504230110 72 145 0.0 0.0 0.00 0.00 0.00 51 1009.8
20260504230029 72 145 0.0 0.0 0.00 0.00 0.00 51 1010.0
20260504230001 72 145 0.0 0.0 0.00 0.00 0.00 52 1010.0
20260504225809 72 145 0.0 0.0 0.00 0.00 0.00 52 1010.0
20260504225725 72 145 0.0 0.0 0.00 0.00 0.00 50 1010.0
20260504225639 72 145 0.0 0.0 0.00 0.00 0.00 53 1010.0
20260504225514 72 145 0.0 0.0 0.00 0.00 0.00 52 1010.0
20260504225431 72 145 0.0 0.0 0.00 0.00 0.00 52 1010.0
20260504225317 72 145 0.0 0.0 0.00 0.00 0.00 53 1009.9
20260504225243 72 145 0.0 0.0 0.00 0.00 0.00 51 1009.9
20260504225135 72 145 0.0 0.0 0.00 0.00 0.00 51 1009.9
20260504225020 72 145 0.0 0.0 0.00 0.00 0.00 50 1010.0
20260504224926 73 145 0.0 0.0 0.00 0.00 0.00 49 1010.0
20260504224839 73 124 0.0 0.0 0.00 0.00 0.00 53 1009.9
20260504224714 73 124 0.0 0.0 0.00 0.00 0.00 51 1009.9
20260504224620 73 124 0.0 0.0 0.00 0.00 0.00 52 1009.9
20260504224554 72 124 0.0 0.0 0.00 0.00 0.00 52 1009.7
20260504224545 73 124 0.0 0.0 0.00 0.00 0.00 49 1009.9
20260504224411 73 124 0.0 0.0 0.00 0.00 0.00 48 1009.9
20260504224323 73 124 0.0 0.0 0.00 0.00 0.00 49 1009.9
20260504224213 73 124 0.0 0.0 0.00 0.00 0.00 49 1010.0
20260504224140 73 124 0.0 0.0 0.00 0.00 0.00 51 1010.0
20260504224014 73 124 0.0 0.0 0.00 0.00 0.00 50 1010.0
20260504223948 73 170 0.0 0.0 0.00 0.00 0.00 50 1010.0
20260504223833 74 92 0.0 0.0 0.00 0.00 0.00 48 1009.9
20260504223724 74 160 0.0 0.0 0.00 0.00 0.00 48 1009.9
20260504223630 74 160 0.0 0.0 0.00 0.00 0.00 48 1010.0
20260504223520 74 160 0.0 0.0 0.00 0.00 0.00 48 1010.0
20260504223426 74 160 0.0 0.0 0.00 0.00 0.00 47 1010.0
20260504223312 74 160 0.0 0.0 0.00 0.00 0.00 47 1010.0
20260504223218 74 198 0.0 0.0 0.00 0.00 0.00 46 1010.1
20260504223131 74 202 0.0 0.0 0.00 0.00 0.00 48 1010.1
20260504223021 74 202 0.0 0.0 0.00 0.00 0.00 45 1010.1
20260504223008 73 202 0.0 0.0 0.00 0.00 0.00 44 1009.9
20260504222927 74 204 0.0 0.0 0.00 0.00 0.00 44 1010.1
20260504222814 74 52 0.0 0.0 0.00 0.00 0.00 48 1010.2
20260504222748 74 31 0.0 0.0 0.00 0.00 0.00 46 1010.2
20260504222632 74 31 0.0 0.0 0.00 0.00 0.00 44 1010.1
20260504222538 74 42 0.0 0.0 0.00 0.00 0.00 48 1010.2
20260504222414 74 40 0.0 0.0 0.00 0.00 0.00 47 1010.2
20260504222317 74 40 0.0 0.0 0.00 0.00 0.00 43 1010.2
20260504222230 74 46 0.0 0.0 0.00 0.00 0.00 43 1010.2
20260504222112 74 22 0.0 5.0 0.00 0.00 0.00 44 1010.2
20260504222018 74 64 0.0 5.0 0.00 0.00 0.00 45 1010.2
20260504221924 74 128 0.0 5.0 0.00 0.00 0.00 43 1010.2
20260504221831 74 292 0.0 5.0 0.00 0.00 0.00 44 1010.1
20260504221715 74 292 0.0 5.0 0.00 0.00 0.00 44 1010.1
20260504221621 74 292 0.0 5.0 0.00 0.00 0.00 43 1010.1
20260504221550 74 26 0.0 5.0 0.00 0.00 0.00 44 1009.9
20260504221523 74 34 0.0 5.0 0.00 0.00 0.00 44 1010.1
20260504221409 74 265 0.0 5.0 0.00 0.00 0.00 45 1010.0
20260504221342 75 42 0.0 5.0 0.00 0.00 0.00 45 1010.0
20260504221224 75 342 0.0 0.0 0.00 0.00 0.00 45 1010.0
20260504221134 75 341 0.0 0.0 0.00 0.00 0.00 43 1010.0
20260504221020 75 48 0.0 0.0 0.00 0.00 0.00 42 1010.0
20260504220926 75 330 0.0 0.0 0.00 0.00 0.00 43 1010.0
20260504220812 75 262 0.0 0.0 0.00 0.00 0.00 45 1009.9
20260504220718 75 42 0.0 0.0 0.00 0.00 0.00 43 1009.9
20260504220628 75 71 0.0 1.0 0.00 0.00 0.00 43 1009.9
20260504220514 75 50 0.0 1.0 0.00 0.00 0.00 43 1010.0
20260504220427 75 51 0.0 1.0 0.00 0.00 0.00 42 1010.0
20260504220309 75 36 0.0 1.0 0.00 0.00 0.00 42 1010.0
20260504220215 75 234 0.0 1.0 0.00 0.00 0.00 41 1010.0
20260504220149 75 96 0.0 1.0 0.00 0.00 0.00 42 1010.0
20260504220018 75 32 0.0 1.0 0.00 0.00 0.00 41 1010.0
20260504220011 75 32 0.0 1.0 0.00 0.00 0.00 42 1009.8
20260504215924 75 5 0.0 1.0 0.00 0.00 0.00 42 1010.0
20260504215809 75 18 0.0 0.0 0.00 0.00 0.00 42 1009.9
20260504215736 75 32 0.0 0.0 0.00 0.00 0.00 44 1009.9
20260504215627 75 59 0.0 0.0 0.00 0.00 0.00 41 1009.9
20260504215513 75 73 0.0 0.0 0.00 0.00 0.00 42 1009.9
20260504215423 75 17 0.0 1.0 0.00 0.00 0.00 43 1009.9
20260504215309 75 17 0.0 1.0 0.00 0.00 0.00 42 1010.0
20260504215215 76 82 0.0 1.0 0.00 0.00 0.00 43 1010.0
20260504215128 76 25 0.0 1.0 0.00 0.00 0.00 41 1010.0
20260504215034 76 95 0.0 1.0 0.00 0.00 0.00 41 1009.9
20260504214924 76 63 0.0 1.0 0.00 0.00 0.00 41 1009.9
20260504214810 76 95 0.0 1.0 0.00 0.00 0.00 40 1010.0
20260504214717 76 70 0.0 1.0 0.00 0.00 0.00 41 1009.9
20260504214623 76 18 0.0 1.0 0.00 0.00 0.00 40 1009.9
20260504214533 76 304 0.0 1.0 0.00 0.00 0.00 40 1009.8
20260504214509 76 13 0.0 1.0 0.00 0.00 0.00 40 1010.0
20260504214422 77 30 0.0 1.0 0.00 0.00 0.00 40 1010.0
20260504214311 77 82 0.0 1.0 0.00 0.00 0.00 43 1009.9
20260504214233 77 44 0.0 6.0 0.00 0.00 0.00 40 1009.9
20260504214114 77 175 0.0 10.0 0.00 0.00 0.00 41 1009.9
20260504214027 77 261 0.0 10.0 0.00 0.00 0.00 41 1009.9
20260504213913 77 15 0.0 10.0 0.00 0.00 0.00 40 1009.9
20260504213836 77 16 0.0 10.0 0.00 0.00 0.00 39 1009.9
20260504213732 77 65 0.0 10.0 0.00 0.00 0.00 40 1009.9
20260504213618 77 13 0.0 10.0 0.00 0.00 0.00 39 1009.9
20260504213524 77 53 2.0 10.0 0.00 0.00 0.00 38 1009.9
20260504213427 77 42 3.0 10.0 0.00 0.00 0.00 38 1009.9
20260504213310 77 26 1.0 10.0 0.00 0.00 0.00 38 1010.0
20260504213243 78 60 1.0 6.0 0.00 0.00 0.00 38 1009.9
20260504213109 78 348 1.0 6.0 0.00 0.00 0.00 38 1009.9
20260504213046 77 33 1.0 6.0 0.00 0.00 0.00 38 1009.8
20260504213014 78 24 0.0 6.0 0.00 0.00 0.00 38 1009.9
20260504212921 78 169 0.0 2.0 0.00 0.00 0.00 38 1009.9
20260504212834 78 26 0.0 2.0 0.00 0.00 0.00 38 1009.9
20260504212720 78 40 0.0 4.0 0.00 0.00 0.00 38 1010.0
20260504212626 78 42 0.0 4.0 0.00 0.00 0.00 39 1010.0
20260504212526 78 339 0.0 8.0 0.00 0.00 0.00 38 1010.0
20260504212412 78 15 0.0 8.0 0.00 0.00 0.00 39 1010.0
20260504212345 78 338 0.0 8.0 0.00 0.00 0.00 40 1010.0
20260504212210 78 301 0.0 8.0 0.00 0.00 0.00 38 1010.0
20260504212116 78 34 0.0 11.0 0.00 0.00 0.00 40 1010.0
20260504212023 78 21 0.0 11.0 0.00 0.00 0.00 39 1010.0
20260504211909 78 5 1.0 11.0 0.00 0.00 0.00 38 1009.9
20260504211822 78 34 1.0 11.0 0.00 0.00 0.00 38 1009.9
20260504211728 78 229 1.0 11.0 0.00 0.00 0.00 40 1009.9
20260504211634 78 331 0.0 11.0 0.00 0.00 0.00 39 1009.9
20260504211527 78 254 0.0 11.0 0.00 0.00 0.00 40 1009.9
20260504211518 77 279 0.0 11.0 0.00 0.00 0.00 40 1009.7
20260504211417 78 55 1.0 11.0 0.00 0.00 0.00 39 1010.0
20260504211323 78 50 1.0 11.0 0.00 0.00 0.00 39 1010.0
20260504211228 78 61 0.0 9.0 0.00 0.00 0.00 38 1009.9
20260504211135 78 63 0.0 9.0 0.00 0.00 0.00 38 1010.0
20260504211047 78 292 0.0 9.0 0.00 0.00 0.00 39 1010.0
20260504210911 78 81 1.0 9.0 0.00 0.00 0.00 39 1010.0
20260504210817 78 30 1.0 9.0 0.00 0.00 0.00 38 1010.0
20260504210734 78 131 1.0 9.0 0.00 0.00 0.00 38 1010.0
20260504210620 78 194 1.0 9.0 0.00 0.00 0.00 41 1010.0
20260504210526 78 196 0.0 1.0 0.00 0.00 0.00 40 1010.0
20260504210412 78 29 0.0 0.0 0.00 0.00 0.00 39 1009.9
20260504210318 78 355 0.0 0.0 0.00 0.00 0.00 39 1010.0
20260504210209 78 344 0.0 0.0 0.00 0.00 0.00 39 1010.0
20260504210115 78 355 0.0 0.0 0.00 0.00 0.00 39 1010.0
20260504210028 78 259 0.0 0.0 0.00 0.00 0.00 39 1010.0
20260504210016 77 252 0.0 0.0 0.00 0.00 0.00 39 1009.9
20260504205914 78 346 0.0 0.0 0.00 0.00 0.00 38 1010.1
20260504205837 78 39 0.0 0.0 0.00 0.00 0.00 39 1010.1
20260504205749 78 308 0.0 0.0 0.00 0.00 0.00 38 1010.1
20260504205618 78 269 0.0 0.0 0.00 0.00 0.00 38 1010.0
20260504205524 78 149 0.0 1.0 0.00 0.00 0.00 38 1010.0
20260504205410 78 57 0.0 5.0 0.00 0.00 0.00 38 1010.0
20260504205343 78 69 0.0 5.0 0.00 0.00 0.00 38 1010.0
20260504205219 78 360 0.0 5.0 0.00 0.00 0.00 39 1010.0
20260504205125 78 119 0.0 5.0 0.00 0.00 0.00 38 1010.0
20260504205015 78 182 0.0 5.0 0.00 0.00 0.00 37 1010.0
20260504204948 78 303 0.0 5.0 0.00 0.00 0.00 37 1010.0
20260504204813 78 306 0.0 10.0 0.00 0.00 0.00 39 1009.9
20260504204720 78 77 0.0 10.0 0.00 0.00 0.00 40 1009.9
20260504204626 78 79 1.0 10.0 0.00 0.00 0.00 39 1010.0
20260504204543 78 82 0.0 10.0 0.00 0.00 0.00 38 1009.8
20260504204511 78 360 1.0 10.0 0.00 0.00 0.00 38 1010.0
20260504204421 78 257 0.0 10.0 0.00 0.00 0.00 38 1010.0
20260504204334 78 278 0.0 10.0 0.00 0.00 0.00 41 1010.0
20260504204219 78 65 1.0 10.0 0.00 0.00 0.00 39 1009.9
20260504204152 78 18 1.0 10.0 0.00 0.00 0.00 38 1009.9
20260504204010 78 70 1.0 9.0 0.00 0.00 0.00 37 1009.9
20260504203916 78 31 1.0 13.0 0.00 0.00 0.00 38 1009.9
20260504203822 78 5 1.0 13.0 0.00 0.00 0.00 37 1009.9
20260504203735 78 67 0.0 13.0 0.00 0.00 0.00 37 1009.9
20260504203614 78 119 0.0 13.0 0.00 0.00 0.00 38 1009.9
20260504203528 78 117 0.0 13.0 0.00 0.00 0.00 37 1009.9
20260504203413 78 62 0.0 13.0 0.00 0.00 0.00 37 1009.9
20260504203340 78 36 2.0 13.0 0.00 0.00 0.00 37 1009.9
20260504203236 78 72 7.0 13.0 0.00 0.00 0.00 36 1009.8
20260504203141 78 295 8.0 13.0 0.00 0.00 0.00 36 1009.8
20260504203032 78 11 5.0 12.0 0.00 0.00 0.00 35 1009.6
20260504203018 78 323 4.0 12.0 0.00 0.00 0.00 35 1009.7
20260504202919 78 283 2.0 12.0 0.00 0.00 0.00 37 1009.9
20260504202824 78 318 0.0 8.0 0.00 0.00 0.00 37 1009.9
20260504202710 78 184 1.0 8.0 0.00 0.00 0.00 35 1010.0
20260504202620 78 130 1.0 8.0 0.00 0.00 0.00 35 1010.0
20260504202526 78 32 0.0 8.0 0.00 0.00 0.00 35 1010.0
20260504202412 78 270 0.0 8.0 0.00 0.00 0.00 35 1010.0
20260504202325 78 288 0.0 8.0 0.00 0.00 0.00 36 1010.0
20260504202212 78 10 1.0 8.0 0.00 0.00 0.00 36 1010.1
20260504202137 78 286 2.0 8.0 0.00 0.00 0.00 36 1010.1
20260504202033 78 5 1.0 8.0 0.00 0.00 0.00 38 1010.1
20260504201919 78 25 0.0 8.0 0.00 0.00 0.00 39 1010.1
20260504201845 78 93 0.0 8.0 0.00 0.00 0.00 37 1010.1
20260504201738 78 30 1.0 8.0 0.00 0.00 0.00 36 1010.2
20260504201622 78 236 2.0 8.0 0.00 0.00 0.00 36 1010.2
20260504201602 77 316 1.0 8.0 0.00 0.00 0.00 37 1010.1
20260504201528 78 345 2.0 8.0 0.00 0.00 0.00 37 1010.2
20260504201418 78 46 0.0 12.0 0.00 0.00 0.00 38 1010.3
20260504201324 78 5 0.0 12.0 0.00 0.00 0.00 38 1010.3
20260504201210 78 26 0.0 12.0 0.00 0.00 0.00 39 1010.3
20260504201143 77 26 0.0 12.0 0.00 0.00 0.00 37 1010.3
20260504201028 77 45 0.0 12.0 0.00 0.00 0.00 37 1010.3
20260504200915 77 336 1.0 12.0 0.00 0.00 0.00 37 1010.3
20260504200832 77 331 1.0 12.0 0.00 0.00 0.00 37 1010.3
20260504200711 78 19 2.0 12.0 0.00 0.00 0.00 35 1010.4
20260504200624 78 5 1.0 12.0 0.00 0.00 0.00 35 1010.4
20260504200510 78 214 0.0 12.0 0.00 0.00 0.00 36 1010.5
20260504200416 78 307 1.0 12.0 0.00 0.00 0.00 37 1010.5
20260504200322 78 268 2.0 12.0 0.00 0.00 0.00 35 1010.5
20260504200239 78 259 3.0 12.0 0.00 0.00 0.00 36 1010.5
20260504200124 78 336 1.0 11.0 0.00 0.00 0.00 37 1010.5
20260504200054 77 303 1.0 11.0 0.00 0.00 0.00 37 1010.3
20260504200010 78 334 0.0 9.0 0.00 0.00 0.00 36 1010.4
20260504195916 78 65 1.0 9.0 0.00 0.00 0.00 37 1010.4
20260504195822 78 9 1.0 9.0 0.00 0.00 0.00 37 1010.4
20260504195713 78 70 1.0 9.0 0.00 0.00 0.00 36 1010.5
20260504195625 78 276 1.0 9.0 0.00 0.00 0.00 36 1010.5
20260504195511 78 13 1.0 12.0 0.00 0.00 0.00 36 1010.6
20260504195438 78 355 2.0 12.0 0.00 0.00 0.00 37 1010.5
20260504195330 78 17 3.0 12.0 0.00 0.00 0.00 36 1010.5
20260504195236 78 275 1.0 12.0 0.00 0.00 0.00 36 1010.5
20260504195148 78 5 0.0 12.0 0.00 0.00 0.00 36 1010.5
20260504195017 78 325 0.0 12.0 0.00 0.00 0.00 36 1010.4
20260504194922 78 348 0.0 12.0 0.00 0.00 0.00 36 1010.4
20260504194828 78 89 2.0 12.0 0.00 0.00 0.00 36 1010.5
20260504194714 77 305 2.0 12.0 0.00 0.00 0.00 37 1010.5
20260504194637 77 302 1.0 12.0 0.00 0.00 0.00 37 1010.4
20260504194621 77 5 1.0 10.0 0.00 0.00 0.00 37 1010.5
20260504194533 77 38 2.0 10.0 0.00 0.00 0.00 38 1010.4
20260504194422 77 33 1.0 10.0 0.00 0.00 0.00 38 1010.4
20260504194328 77 323 0.0 4.0 0.00 0.00 0.00 38 1010.5
20260504194214 77 360 0.0 4.0 0.00 0.00 0.00 38 1010.5
20260504194147 77 330 0.0 4.0 0.00 0.00 0.00 38 1010.5
20260504194013 77 50 0.0 4.0 0.00 0.00 0.00 38 1010.6
20260504193934 77 209 0.0 6.0 0.00 0.00 0.00 38 1010.6
20260504193830 77 123 0.0 10.0 0.00 0.00 0.00 38 1010.6
20260504193716 76 36 0.0 10.0 0.00 0.00 0.00 39 1010.7
20260504193622 76 50 0.0 10.0 0.00 0.00 0.00 38 1010.7
20260504193555 76 84 0.0 10.0 0.00 0.00 0.00 38 1010.6
20260504193440 76 98 0.0 10.0 0.00 0.00 0.00 40 1010.6
20260504193325 76 300 0.0 10.0 0.00 0.00 0.00 38 1010.8
20260504193215 76 257 1.0 10.0 0.00 0.00 0.00 37 1010.8
20260504193128 76 320 3.0 12.0 0.00 0.00 0.00 36 1010.8
20260504193034 77 15 3.0 12.0 0.00 0.00 0.00 36 1010.8
20260504193009 76 348 1.0 12.0 0.00 0.00 0.00 36 1010.7
20260504192920 77 320 1.0 12.0 0.00 0.00 0.00 37 1010.9
20260504192826 77 38 2.0 12.0 0.00 0.00 0.00 37 1010.7
20260504192712 77 53 1.0 12.0 0.00 0.00 0.00 37 1010.6
20260504192619 77 71 0.0 12.0 0.00 0.00 0.00 36 1010.6
20260504192552 77 22 0.0 12.0 0.00 0.00 0.00 36 1010.7
20260504192414 77 31 1.0 12.0 0.00 0.00 0.00 36 1010.9
20260504192320 77 53 2.0 12.0 0.00 0.00 0.00 36 1010.9
20260504192234 77 57 1.0 11.0 0.00 0.00 0.00 36 1010.9
20260504192117 77 244 1.0 11.0 0.00 0.00 0.00 35 1010.9
20260504192027 77 348 2.0 11.0 0.00 0.00 0.00 35 1010.9
20260504191913 77 320 2.0 14.0 0.00 0.00 0.00 35 1011.0
20260504191819 77 13 1.0 14.0 0.00 0.00 0.00 37 1011.0
20260504191732 77 309 1.0 14.0 0.00 0.00 0.00 38 1010.9
20260504191617 77 26 1.0 14.0 0.00 0.00 0.00 36 1010.9
20260504191544 77 124 2.0 14.0 0.00 0.00 0.00 36 1010.8
20260504191523 77 160 3.0 14.0 0.00 0.00 0.00 35 1010.9
20260504191413 77 309 2.0 14.0 0.00 0.00 0.00 35 1010.9
20260504191346 77 301 3.0 14.0 0.00 0.00 0.00 36 1010.9
20260504191211 77 300 3.0 14.0 0.00 0.00 0.00 35 1010.9
20260504191117 77 5 3.0 13.0 0.00 0.00 0.00 37 1010.9
20260504191023 77 330 5.0 13.0 0.00 0.00 0.00 35 1010.9
20260504190910 77 320 5.0 12.0 0.00 0.00 0.00 35 1010.9
20260504190826 77 286 3.0 12.0 0.00 0.00 0.00 36 1010.9
20260504190713 77 317 2.0 11.0 0.00 0.00 0.00 35 1011.2
20260504190633 77 200 1.0 11.0 0.00 0.00 0.00 34 1011.1
20260504190525 77 267 2.0 11.0 0.00 0.00 0.00 35 1011.1
20260504190411 77 336 1.0 10.0 0.00 0.00 0.00 37 1011.1
20260504190317 77 159 1.0 7.0 0.00 0.00 0.00 36 1011.1
20260504190226 77 270 0.0 6.0 0.00 0.00 0.00 37 1011.1
20260504190130 77 124 0.0 6.0 0.00 0.00 0.00 36 1011.1
20260504190026 76 36 0.0 6.0 0.00 0.00 0.00 38 1011.0
20260504190012 76 87 0.0 5.0 0.00 0.00 0.00 38 1011.1
20260504185926 76 310 0.0 5.0 0.00 0.00 0.00 35 1011.1
20260504185828 76 5 0.0 5.0 0.00 0.00 0.00 35 1011.1
20260504185735 76 135 0.0 6.0 0.00 0.00 0.00 35 1011.1
20260504185631 76 237 0.0 6.0 0.00 0.00 0.00 36 1011.1
20260504185517 76 326 0.0 8.0 0.00 0.00 0.00 36 1011.2
20260504185422 76 41 0.0 8.0 0.00 0.00 0.00 36 1011.2
20260504185329 76 325 1.0 8.0 0.00 0.00 0.00 36 1011.2
20260504185214 75 296 1.0 8.0 0.00 0.00 0.00 37 1011.2
20260504185148 75 300 0.0 8.0 0.00 0.00 0.00 38 1011.2
20260504185017 75 38 0.0 8.0 0.00 0.00 0.00 36 1011.2
20260504184922 75 28 1.0 13.0 0.00 0.00 0.00 36 1011.2
20260504184828 75 18 1.0 13.0 0.00 0.00 0.00 36 1011.3
20260504184742 75 36 0.0 13.0 0.00 0.00 0.00 36 1011.4
20260504184626 75 355 0.0 13.0 0.00 0.00 0.00 36 1011.3
20260504184600 75 344 0.0 13.0 0.00 0.00 0.00 35 1011.3
20260504184516 75 286 0.0 13.0 0.00 0.00 0.00 35 1011.3
20260504184450 75 351 1.0 13.0 0.00 0.00 0.00 36 1011.3
20260504184334 75 197 1.0 13.0 0.00 0.00 0.00 35 1011.3
20260504184220 75 51 1.0 13.0 0.00 0.00 0.00 36 1011.3
20260504184127 75 300 1.0 13.0 0.00 0.00 0.00 34 1011.3
20260504184012 75 23 0.0 8.0 0.00 0.00 0.00 37 1011.4
20260504183922 75 36 0.0 8.0 0.00 0.00 0.00 35 1011.4
20260504183835 75 146 0.0 8.0 0.00 0.00 0.00 35 1011.3
20260504183721 75 21 1.0 8.0 0.00 0.00 0.00 35 1011.4
20260504183627 76 11 1.0 8.0 0.00 0.00 0.00 34 1011.4
20260504183513 76 296 0.0 6.0 0.00 0.00 0.00 36 1011.4
20260504183419 76 5 0.0 6.0 0.00 0.00 0.00 34 1011.4
20260504183309 76 9 0.0 8.0 0.00 0.00 0.00 34 1011.3
20260504183215 76 294 1.0 14.0 0.00 0.00 0.00 36 1011.3
20260504183128 76 5 1.0 14.0 0.00 0.00 0.00 35 1011.3
20260504183014 76 323 0.0 14.0 0.00 0.00 0.00 34 1011.4
20260504183003 75 308 0.0 14.0 0.00 0.00 0.00 34 1011.3
20260504182920 76 280 0.0 14.0 0.00 0.00 0.00 34 1011.4
20260504182810 76 13 0.0 14.0 0.00 0.00 0.00 35 1011.4
20260504182743 76 40 0.0 14.0 0.00 0.00 0.00 34 1011.4
20260504182648 76 300 0.0 14.0 0.00 0.00 0.00 35 1011.4
20260504182513 76 51 2.0 14.0 0.00 0.00 0.00 36 1011.5
20260504182419 76 295 3.0 14.0 0.00 0.00 0.00 35 1011.5
20260504182332 76 275 1.0 14.0 0.00 0.00 0.00 35 1011.5
20260504182222 76 66 1.0 12.0 0.00 0.00 0.00 36 1011.5
20260504182128 76 87 0.0 12.0 0.00 0.00 0.00 36 1011.4
20260504182014 76 50 2.0 12.0 0.00 0.00 0.00 36 1011.4
20260504181920 76 97 4.0 12.0 0.00 0.00 0.00 35 1011.4
20260504181853 76 113 4.0 12.0 0.00 0.00 0.00 34 1011.6
20260504181718 76 82 2.0 9.0 0.00 0.00 0.00 35 1011.6
20260504181628 76 40 1.0 7.0 0.00 0.00 0.00 35 1011.6
20260504181549 76 37 0.0 5.0 0.00 0.00 0.00 35 1011.6
20260504181514 76 304 0.0 5.0 0.00 0.00 0.00 35 1011.6
20260504181420 76 40 0.0 5.0 0.00 0.00 0.00 37 1011.6
20260504181333 76 50 1.0 5.0 0.00 0.00 0.00 34 1011.6
20260504181219 76 150 1.0 6.0 0.00 0.00 0.00 36 1011.7
20260504181109 76 355 1.0 6.0 0.00 0.00 0.00 35 1011.7
20260504181015 76 126 1.0 6.0 0.00 0.00 0.00 33 1011.7
20260504180920 76 105 1.0 6.0 0.00 0.00 0.00 35 1011.7
20260504180827 76 96 1.0 6.0 0.00 0.00 0.00 34 1011.7
20260504180712 76 288 0.0 6.0 0.00 0.00 0.00 33 1011.8
20260504180626 76 121 0.0 8.0 0.00 0.00 0.00 35 1011.8
20260504180516 76 5 1.0 8.0 0.00 0.00 0.00 33 1011.8
20260504180441 76 230 3.0 8.0 0.00 0.00 0.00 34 1011.8
20260504180334 76 41 2.0 8.0 0.00 0.00 0.00 34 1011.9
20260504180240 76 96 1.0 8.0 0.00 0.00 0.00 35 1011.9
20260504180124 76 77 0.0 8.0 0.00 0.00 0.00 35 1011.9
20260504180040 75 119 0.0 8.0 0.00 0.00 0.00 34 1011.8
20260504180011 76 182 1.0 8.0 0.00 0.00 0.00 34 1011.9
20260504175929 76 339 1.0 8.0 0.00 0.00 0.00 34 1011.9
20260504175833 76 360 1.0 8.0 0.00 0.00 0.00 35 1011.9
20260504175719 76 100 2.0 8.0 0.00 0.00 0.00 33 1011.8
20260504175625 76 104 2.0 9.0 0.00 0.00 0.00 33 1011.9
20260504175511 76 20 1.0 9.0 0.00 0.00 0.00 34 1011.9
20260504175444 76 17 0.0 9.0 0.00 0.00 0.00 34 1011.9
20260504175313 75 346 0.0 9.0 0.00 0.00 0.00 37 1011.9
20260504175219 75 59 1.0 9.0 0.00 0.00 0.00 35 1011.9
20260504175126 76 51 2.0 9.0 0.00 0.00 0.00 35 1011.9
20260504175011 76 20 1.0 6.0 0.00 0.00 0.00 39 1011.9
20260504174917 76 63 0.0 5.0 0.00 0.00 0.00 39 1011.9
20260504174830 76 34 0.0 6.0 0.00 0.00 0.00 37 1011.9
20260504174720 76 74 0.0 6.0 0.00 0.00 0.00 40 1012.0
20260504174626 76 267 0.0 6.0 0.00 0.00 0.00 35 1012.0
20260504174553 75 283 0.0 6.0 0.00 0.00 0.00 35 1011.9
20260504174532 76 232 0.0 6.0 0.00 0.00 0.00 35 1012.1
20260504174424 76 321 0.0 8.0 0.00 0.00 0.00 35 1012.1
20260504174311 76 62 0.0 13.0 0.00 0.00 0.00 34 1012.0
20260504174220 76 53 0.0 13.0 0.00 0.00 0.00 36 1012.0
20260504174126 76 76 1.0 13.0 0.00 0.00 0.00 35 1012.1
20260504174032 76 360 1.0 13.0 0.00 0.00 0.00 34 1012.1
20260504173924 76 268 0.0 13.0 0.00 0.00 0.00 35 1012.1
20260504173810 76 49 0.0 13.0 0.00 0.00 0.00 34 1012.1
20260504173716 76 60 1.0 13.0 0.00 0.00 0.00 35 1012.1
20260504173626 76 50 4.0 13.0 0.00 0.00 0.00 34 1012.1
20260504173539 76 36 4.0 13.0 0.00 0.00 0.00 33 1012.2
20260504173444 76 74 0.0 11.0 0.00 0.00 0.00 35 1012.2
20260504173310 76 105 2.0 11.0 0.00 0.00 0.00 36 1012.2
20260504173224 76 205 3.0 11.0 0.00 0.00 0.00 34 1012.2
20260504173129 76 12 3.0 11.0 0.00 0.00 0.00 33 1012.3
20260504173105 76 66 2.0 11.0 0.00 0.00 0.00 37 1012.3
20260504173019 76 60 1.0 8.0 0.00 0.00 0.00 35 1012.2
20260504172925 76 94 1.0 8.0 0.00 0.00 0.00 35 1012.2
20260504172811 76 62 0.0 5.0 0.00 0.00 0.00 35 1012.3
20260504172717 76 279 0.0 9.0 0.00 0.00 0.00 35 1012.3
20260504172630 76 13 1.0 9.0 0.00 0.00 0.00 36 1012.3
20260504172516 76 45 1.0 9.0 0.00 0.00 0.00 34 1012.2
20260504172426 76 28 0.0 9.0 0.00 0.00 0.00 33 1012.2
20260504172312 76 334 0.0 9.0 0.00 0.00 0.00 34 1012.2
20260504172218 76 41 0.0 9.0 0.00 0.00 0.00 36 1012.3
20260504172124 76 12 0.0 9.0 0.00 0.00 0.00 35 1012.3
20260504172010 76 9 2.0 9.0 0.00 0.00 0.00 32 1012.2
20260504171927 76 300 2.0 10.0 0.00 0.00 0.00 34 1012.2
20260504171812 76 65 1.0 10.0 0.00 0.00 0.00 33 1012.2
20260504171719 76 84 1.0 10.0 0.00 0.00 0.00 35 1012.2
20260504171624 76 17 0.0 10.0 0.00 0.00 0.00 36 1012.2
20260504171540 76 41 0.0 10.0 0.00 0.00 0.00 34 1012.2
20260504171530 76 47 0.0 10.0 0.00 0.00 0.00 34 1012.2
20260504171422 76 5 1.0 10.0 0.00 0.00 0.00 33 1012.2
20260504171312 76 332 2.0 10.0 0.00 0.00 0.00 35 1012.2
20260504171219 76 290 3.0 10.0 0.00 0.00 0.00 34 1012.3
20260504171124 76 65 2.0 10.0 0.00 0.00 0.00 34 1012.3
20260504171010 76 136 1.0 9.0 0.00 0.00 0.00 36 1012.3
20260504170923 76 128 1.0 9.0 0.00 0.00 0.00 35 1012.3
20260504170849 76 341 2.0 9.0 0.00 0.00 0.00 33 1012.3
20260504170718 76 303 1.0 9.0 0.00 0.00 0.00 35 1012.4
20260504170631 76 347 0.0 9.0 0.00 0.00 0.00 35 1012.4
20260504170510 75 327 1.0 9.0 0.00 0.00 0.00 35 1012.4
20260504170423 75 46 1.0 11.0 0.00 0.00 0.00 35 1012.4